GFSSW_925_thetae_000.txt.gz
Theta_e
310 310 311 309 310 310 310 310 311 311 312 312 313 315 315 313 311 312 313 311 312 311 311 311 312 312 313 313 312 312 314 314 313 313 313 314 314 318 318 320 320 320 324 325 325
309 309 310 310 310 310 311 311 311 312 312 313 314 314 315 315 316 315 313 312 311 311 313 315 315 315 315 314 314 314 314 314 315 315 314 314 315 316 318 320 322 323 320 321 324
310 311 311 311 311 311 311 311 312 312 313 314 315 317 316 317 316 316 314 313 312 312 313 313 314 316 315 316 316 316 316 314 317 317 317 314 315 316 317 317 320 323 322 320 320
311 311 311 311 311 311 311 311 312 313 314 316 316 316 314 315 316 316 314 313 312 312 313 316 317 317 317 316 317 317 318 318 318 315 315 315 316 315 316 317 318 321 320 318 318
312 312 312 312 312 312 312 313 314 315 316 316 314 314 316 318 317 315 315 314 313 313 314 316 317 317 317 317 318 318 318 319 318 316 316 315 316 316 316 315 315 315 315 315 315
314 314 315 315 313 312 313 314 316 317 317 317 316 316 318 319 317 315 316 315 315 315 315 316 317 318 319 319 319 320 320 321 320 319 318 318 318 316 317 315 315 314 315 314 313
315 315 315 315 314 314 315 318 320 319 318 317 316 316 318 317 315 315 316 315 315 315 316 313 315 318 318 321 319 319 320 320 319 319 319 317 319 318 316 315 315 315 315 314 313
315 315 315 315 315 316 317 318 319 320 318 317 317 319 318 316 316 315 317 317 316 315 315 315 316 318 320 319 318 319 318 317 317 316 317 316 315 317 317 316 316 316 316 314 313
315 315 315 316 317 317 318 319 319 318 317 317 319 319 318 317 317 315 315 317 317 317 316 315 316 317 318 319 318 316 316 316 315 316 315 315 315 315 316 315 315 315 317 316 314
315 315 315 316 318 318 317 316 316 317 317 317 317 319 317 316 315 314 315 316 318 319 319 318 317 317 317 316 316 316 316 316 316 314 314 315 315 315 315 314 315 315 315 316 315
313 315 315 316 317 319 319 319 319 318 317 317 317 317 316 315 314 315 314 318 318 319 320 318 318 318 317 316 315 316 316 316 315 314 314 315 316 316 316 315 315 315 315 315 316
311 315 315 316 317 317 317 321 319 319 318 317 315 315 314 313 316 315 315 319 318 318 319 319 319 316 315 315 315 316 317 317 315 315 314 316 316 316 314 314 314 315 315 315 314
312 313 315 316 317 317 320 320 317 318 318 317 316 316 314 314 315 315 314 317 316 316 316 318 317 314 315 316 316 317 317 316 316 316 316 315 317 317 315 315 314 314 314 313 313
313 311 315 316 318 316 318 317 320 315 318 317 317 316 314 314 315 312 311 315 316 316 316 316 316 315 316 316 315 318 314 314 315 316 318 314 318 318 316 316 315 315 315 314 313
314 312 312 316 316 318 315 315 321 322 329 318 316 314 314 315 315 315 310 314 316 315 316 317 315 315 316 315 313 316 314 315 314 315 315 316 317 319 317 316 315 315 314 314 313
315 315 310 311 313 312 313 318 321 331 324 319 315 316 316 315 315 315 314 312 311 313 313 314 313 314 314 314 312 312 316 317 314 316 320 317 317 319 317 316 316 315 315 314 313
316 316 316 315 318 314 317 324 329 327 317 317 316 316 316 316 316 315 314 315 315 316 317 314 315 314 313 316 314 316 319 325 324 324 323 316 317 319 318 316 315 315 314 313 313
315 315 315 316 314 318 320 330 323 318 319 314 315 316 318 316 316 315 315 316 314 315 316 319 318 313 313 315 316 314 316 321 328 323 322 318 319 319 316 315 314 313 313 313 313
316 316 316 315 316 317 325 327 323 319 315 316 316 318 318 316 315 315 316 315 314 315 319 320 319 315 312 314 314 317 320 314 317 313 317 319 318 317 317 316 315 315 315 315 314
321 320 317 315 316 316 328 318 316 313 314 316 317 317 318 317 316 316 316 314 314 313 313 317 321 316 315 313 313 315 314 320 319 328 326 320 320 320 318 318 316 316 316 314 314
322 321 315 314 312 320 325 318 315 312 313 316 317 317 317 317 317 317 317 314 313 314 314 315 317 320 318 319 320 319 319 315 315 318 325 326 322 319 318 318 317 316 315 315 315
320 322 314 313 322 318 320 316 310 314 314 316 316 316 317 317 318 317 317 317 312 313 318 316 319 321 320 318 313 316 318 316 321 322 321 320 321 318 318 317 315 315 316 315 315
320 319 314 316 328 324 317 317 316 316 315 316 317 316 316 318 320 317 317 315 313 314 319 317 319 322 321 316 314 316 315 315 317 318 321 324 323 318 317 317 318 317 316 315 314
318 325 321 318 317 321 320 320 320 316 316 316 316 317 318 319 318 319 318 317 315 316 313 315 319 321 323 321 319 320 319 318 319 322 322 323 322 321 319 318 318 317 315 314 313
316 319 313 325 321 320 320 319 321 321 317 315 318 318 318 321 317 319 317 317 316 314 317 318 320 319 319 318 317 317 318 318 319 319 321 321 320 319 318 317 317 315 314 312 310
319 319 314 316 314 316 315 319 319 317 317 317 318 317 317 318 317 319 317 318 318 317 317 316 319 316 317 317 317 318 317 317 317 318 318 319 321 319 317 316 315 313 313 310 310
309 308 319 308 315 317 318 318 317 317 315 316 318 318 319 318 316 316 316 317 317 318 318 318 318 319 321 317 316 319 318 317 318 317 318 320 319 316 315 314 312 310 310 311 311

GFSSW_925_thetae_003.txt.gz
Theta_e
310 311 311 311 310 310 310 310 311 311 312 312 314 315 314 313 316 317 315 313 312 312 312 316 315 314 315 315 315 317 316 315 315 315 315 315 316 317 318 318 317 319 322 330 333
309 310 311 311 311 311 311 311 311 312 312 314 315 315 315 314 319 316 314 313 313 312 316 316 316 316 316 315 316 317 317 316 316 315 316 315 315 316 317 318 320 321 325 329 331
311 311 311 311 311 311 311 311 312 312 314 315 316 316 315 317 320 317 315 314 313 313 316 316 317 316 316 317 317 318 316 315 316 316 316 316 315 316 317 317 318 320 323 327 328
312 312 311 311 311 311 311 312 312 314 315 316 316 316 317 320 319 317 315 315 313 314 316 317 318 318 318 317 317 318 317 317 318 317 317 317 318 317 317 318 318 319 321 324 325
312 312 312 312 312 312 312 313 315 316 316 315 314 315 318 320 319 318 317 317 316 316 316 317 318 319 318 318 319 320 319 320 319 319 319 319 319 319 318 318 318 320 321 322 322
315 315 315 314 313 313 314 315 316 318 316 316 316 318 323 319 318 318 318 319 318 319 318 318 319 320 320 320 321 320 321 321 321 320 319 319 318 318 319 319 319 319 319 319 318
315 315 315 315 315 315 316 318 319 318 317 316 317 319 320 319 318 318 319 319 319 319 319 317 318 321 321 322 322 321 322 321 320 319 319 318 318 319 318 318 317 318 318 318 318
315 315 315 315 316 318 318 320 319 318 318 317 317 322 320 318 319 319 319 319 319 319 318 317 318 320 323 321 321 320 321 317 318 318 318 316 316 317 318 317 317 317 318 318 318
315 315 315 316 317 317 319 319 318 317 317 317 322 321 320 318 319 318 319 319 319 319 319 318 317 319 321 321 322 318 318 318 317 317 317 316 317 317 317 317 317 317 317 318 318
315 315 316 318 318 316 316 317 317 318 318 318 318 321 318 319 318 318 319 319 319 320 321 319 320 321 319 319 318 318 319 319 319 318 317 318 318 319 319 318 317 317 317 317 317
314 315 315 317 319 319 319 319 322 320 319 320 319 318 317 317 317 318 318 319 320 321 320 319 322 320 319 319 318 319 319 321 320 318 318 319 320 319 319 317 317 317 317 317 317
312 315 315 316 317 317 321 323 323 323 319 317 317 316 316 316 318 317 316 320 319 319 318 322 322 318 318 318 318 320 321 321 320 319 320 320 320 319 317 317 316 316 317 317 317
311 314 315 316 317 324 324 322 322 324 321 317 317 317 316 316 316 316 316 317 317 317 317 319 320 317 317 318 318 320 320 319 320 320 321 320 321 320 317 318 316 317 317 316 315
313 311 315 316 319 323 323 321 323 324 324 318 318 318 316 316 317 315 314 316 318 318 316 319 318 317 318 318 318 320 318 319 320 321 322 320 320 320 319 318 317 317 318 317 316
315 310 315 317 322 322 320 320 325 329 338 319 318 316 316 317 316 317 314 317 318 317 317 320 316 316 318 317 317 319 318 320 321 321 321 320 320 321 319 318 318 317 317 317 316
316 314 311 317 321 318 317 323 328 335 330 321 318 318 318 317 317 317 317 315 314 315 316 315 314 317 316 317 317 317 321 323 322 321 325 324 319 320 321 318 317 317 317 316 316
314 316 317 319 323 316 320 328 332 334 321 320 319 318 318 318 318 317 318 319 319 321 320 318 317 316 316 319 320 321 322 328 328 327 327 320 320 321 320 318 317 316 316 316 316
315 318 317 320 320 321 325 326 333 323 322 318 318 318 320 319 319 317 318 320 319 320 322 322 323 317 317 318 320 321 320 326 329 326 325 321 321 321 319 317 316 316 316 316 317
316 323 320 319 318 323 327 332 327 322 319 319 318 320 321 319 317 318 319 319 318 318 322 323 322 320 316 317 318 322 325 320 322 322 323 322 321 320 321 318 317 317 317 318 317
323 323 320 316 318 325 328 320 320 317 317 317 320 318 320 319 319 319 319 317 318 317 318 321 323 320 319 319 318 320 319 324 324 333 329 324 323 323 321 321 319 318 318 317 317
326 325 320 315 318 324 327 321 317 315 316 319 319 319 319 319 319 320 320 317 317 318 318 320 321 323 321 322 323 322 324 320 320 322 329 328 324 322 321 321 321 319 318 318 317
324 326 319 318 327 323 323 319 311 317 317 318 318 319 320 320 322 320 320 320 317 317 320 320 321 324 323 321 317 318 321 322 325 325 325 328 326 321 321 320 318 319 319 318 316
323 322 321 322 332 327 320 319 318 318 318 319 320 320 319 321 323 320 320 318 317 318 321 320 322 325 323 321 319 322 321 321 321 323 325 327 326 321 320 321 319 319 318 317 316
322 334 324 323 323 323 323 322 322 318 319 319 319 320 321 322 320 322 321 319 318 318 315 316 320 323 325 323 322 322 321 321 322 327 327 327 325 321 320 320 319 318 317 316 315
319 322 319 328 325 323 323 322 323 323 320 319 320 320 320 322 320 320 320 320 319 316 318 320 323 321 321 320 319 320 320 320 320 322 324 324 322 321 319 319 318 316 316 314 314
323 322 319 320 319 320 318 321 320 319 319 320 320 320 320 321 321 322 320 320 320 319 320 318 322 319 320 318 319 320 319 318 318 319 320 320 321 319 318 317 316 315 314 315 314
316 315 324 315 319 320 320 319 318 318 319 318 319 320 322 321 319 319 319 319 319 320 323 322 320 320 320 319 318 321 320 320 320 319 319 321 320 316 316 315 315 315 315 314 314

GFSSW_925_thetae_009.txt.gz
Theta_e
312 312 312 312 311 311 310 310 311 312 313 313 313 313 314 315 316 319 314 314 314 313 313 316 317 316 317 311 312 312 308 308 311 311 312 311 312 315 315 315 316 318 328 328 325
310 312 312 312 311 311 311 311 311 312 313 313 313 314 314 315 318 315 315 315 314 314 314 317 316 315 311 314 313 310 307 311 312 312 310 311 311 314 313 311 315 319 330 334 334
311 311 311 311 311 311 310 311 311 313 314 314 314 314 314 315 323 316 315 313 313 314 315 316 317 316 315 316 314 313 312 314 314 315 312 313 315 314 315 314 316 316 321 329 332
311 311 311 311 311 311 311 312 313 313 315 314 314 314 314 316 317 317 318 317 315 317 317 317 316 317 316 316 316 315 316 316 316 316 316 317 316 316 315 315 316 315 317 319 321
314 312 311 311 311 311 312 313 314 315 315 315 314 314 315 322 318 319 319 319 319 319 318 317 317 317 317 317 318 317 317 318 317 316 316 317 315 315 315 314 315 316 318 318 319
314 314 313 312 313 313 314 315 315 315 315 315 314 314 319 319 318 319 319 319 319 318 317 317 317 318 319 319 318 319 318 318 318 317 317 316 315 315 313 313 314 316 317 318 318
314 314 314 314 315 315 316 316 316 316 315 315 316 317 323 318 319 319 320 319 319 318 317 317 318 318 319 321 319 318 318 318 318 316 315 315 313 312 313 314 314 314 315 314 314
314 314 315 316 317 318 318 317 317 317 316 317 316 321 319 318 319 319 319 319 319 319 318 317 317 318 320 319 320 320 319 317 318 316 315 313 312 313 312 314 313 312 312 314 313
315 315 316 317 317 318 318 317 317 317 316 316 318 322 318 318 318 318 319 319 319 320 320 320 318 318 320 320 319 316 316 318 318 315 316 316 315 315 314 313 312 312 311 312 312
315 316 317 317 317 318 318 317 317 316 316 316 319 322 318 318 318 318 317 317 319 319 319 321 317 318 314 313 315 317 317 318 318 316 315 315 316 314 315 315 313 311 312 312 312
315 315 317 317 318 317 318 322 319 321 321 317 315 318 316 317 317 316 315 315 317 319 319 317 316 315 316 317 317 316 315 317 317 317 316 316 315 315 315 311 311 311 311 311 312
314 315 316 317 317 319 324 325 324 325 322 317 316 316 316 316 317 314 315 315 317 317 317 315 318 316 316 316 317 316 318 318 318 318 318 317 317 315 313 313 312 312 312 312 311
312 315 316 316 316 324 322 323 325 323 328 317 317 316 316 316 316 315 314 314 317 316 315 316 317 316 316 317 317 315 319 318 318 318 318 318 317 315 314 313 314 313 312 312 311
311 313 315 316 317 324 323 322 326 328 331 318 319 317 317 316 317 317 315 315 319 317 315 317 317 315 316 318 316 316 318 319 319 320 321 319 319 316 314 314 314 314 312 311 312
313 315 315 322 324 324 323 320 325 333 330 320 317 316 317 316 316 317 316 316 315 315 315 319 314 313 317 316 315 317 318 318 320 320 321 320 317 315 314 315 314 313 313 312 311
316 313 318 323 322 322 319 320 329 332 332 320 318 318 319 318 317 316 318 316 315 317 315 314 315 315 315 316 317 318 320 320 323 320 322 321 319 317 318 316 315 314 314 313 312
320 320 319 323 325 318 319 330 331 326 323 320 320 319 318 319 319 317 319 318 318 320 321 320 316 315 317 318 318 317 320 321 322 322 323 319 320 318 318 316 315 314 313 313 312
322 324 323 319 319 319 329 327 334 324 322 319 319 318 320 317 319 318 319 319 317 318 320 323 322 318 318 318 319 318 320 319 325 324 322 320 322 319 317 315 315 315 313 313 314
322 324 322 317 318 325 327 327 322 322 320 320 320 320 321 319 317 319 318 319 317 317 321 323 323 319 318 317 317 319 321 320 320 319 319 321 320 318 318 319 318 317 316 316 316
323 328 320 320 318 328 327 320 320 318 318 319 322 320 322 320 321 320 320 318 319 318 317 321 323 321 321 319 318 319 319 320 317 323 326 322 321 320 320 319 318 317 316 316 316
327 326 320 316 323 326 323 319 317 316 318 320 321 322 321 322 322 322 321 319 318 318 317 320 320 321 320 323 322 319 319 321 323 321 327 326 323 319 320 318 318 318 317 315 314
327 326 319 322 327 325 320 319 313 318 318 320 320 322 322 323 323 323 323 321 317 317 322 318 319 317 321 319 319 317 321 321 322 326 318 320 324 318 317 317 318 317 315 313 312
325 324 323 324 321 317 319 320 320 321 320 321 321 321 320 322 322 322 321 319 317 319 319 318 315 316 319 319 318 320 319 319 319 313 320 318 321 317 317 317 315 313 312 312 312
322 312 322 322 322 321 321 322 321 320 319 320 320 320 321 322 321 320 320 320 318 319 317 316 318 317 319 320 320 320 319 318 318 312 318 318 318 316 316 315 314 313 312 311 311
319 319 319 319 320 321 322 322 323 323 320 319 321 321 321 318 319 321 322 321 319 317 318 318 317 319 319 319 319 319 318 318 318 317 318 318 317 316 314 314 314 313 313 313 312
320 321 319 318 319 320 318 321 321 319 319 321 320 321 320 320 322 322 320 320 320 319 318 319 316 319 319 319 320 318 316 316 316 316 317 317 316 314 312 314 314 313 313 312 312
320 319 320 316 317 315 317 320 320 319 319 318 319 319 315 321 319 319 318 317 317 318 316 316 313 311 322 317 315 312 313 315 316 314 315 315 315 315 315 315 315 313 312 312 311

GFSSW_925_thetae_012.txt.gz
Theta_e
310 311 311 310 310 311 310 310 310 311 311 313 313 313 314 315 317 313 313 314 313 314 314 314 316 317 315 311 310 306 306 307 311 311 311 308 313 313 313 313 315 325 324 325 335
310 311 311 311 311 311 311 310 310 311 312 313 313 313 314 315 318 315 314 313 313 314 314 315 314 315 310 312 311 306 305 312 311 310 312 311 313 312 312 313 318 329 330 328 336
311 311 311 311 311 311 310 311 311 312 312 313 313 313 313 315 319 315 317 316 317 317 317 316 315 315 314 312 313 312 313 313 314 314 313 315 315 313 313 315 318 329 332 332 334
312 311 311 310 311 310 311 311 312 313 314 313 313 313 313 318 315 317 319 319 319 318 318 317 315 315 313 315 313 315 315 315 315 316 316 316 315 315 314 314 314 327 330 330 330
313 312 311 311 311 311 312 313 313 314 315 314 313 313 315 317 317 319 319 319 318 317 316 314 316 316 317 317 317 316 316 316 316 315 315 315 315 314 314 312 312 316 319 325 324
314 313 312 312 312 313 314 314 314 314 314 314 314 316 319 317 318 318 319 318 318 318 316 316 315 315 318 317 317 317 317 316 315 315 315 315 315 315 313 310 312 316 314 314 316
314 314 314 314 314 315 316 316 316 315 314 315 316 317 323 316 319 318 319 319 319 319 316 316 316 315 317 319 318 318 318 315 316 316 314 313 313 312 311 310 312 314 314 313 313
314 314 315 316 317 317 317 317 316 316 316 316 316 319 316 318 318 319 319 318 319 319 319 319 317 316 317 317 319 319 315 316 315 316 314 312 312 313 311 311 311 311 312 313 313
315 315 316 316 317 317 317 317 316 316 316 315 319 321 319 318 318 318 317 317 317 319 319 319 318 316 316 315 313 312 315 316 317 314 315 314 313 313 312 311 312 310 309 311 310
315 316 317 317 317 317 317 316 316 316 318 318 319 319 317 317 317 317 315 315 315 317 318 319 314 314 311 311 313 315 314 314 317 315 315 315 314 313 312 311 310 308 309 310 312
315 316 316 317 317 317 318 322 322 316 319 315 315 315 315 316 317 315 314 315 315 317 318 315 313 314 314 314 316 315 315 316 316 315 316 315 314 314 312 309 309 309 309 310 312
315 316 316 317 317 322 324 322 323 324 321 316 315 315 315 316 315 314 314 314 315 314 313 315 315 315 314 315 315 314 318 317 315 316 317 316 316 311 310 310 310 309 309 309 310
314 315 316 316 316 323 321 324 325 323 324 316 316 315 315 315 315 315 313 313 316 315 313 316 316 315 315 315 315 314 318 317 317 316 316 317 317 313 313 313 312 311 309 309 309
311 314 316 316 317 324 322 321 323 329 321 317 317 317 316 315 317 316 315 315 315 315 314 316 315 313 315 315 314 315 315 317 317 318 319 317 321 316 313 313 313 312 310 309 309
312 314 315 317 324 322 322 319 325 329 322 319 316 316 315 315 315 316 315 315 314 313 313 317 313 312 315 314 314 315 315 317 319 318 319 318 317 315 314 314 314 311 310 310 310
314 316 317 321 321 322 320 319 328 327 328 318 317 318 318 317 316 315 316 315 316 318 316 314 313 313 314 315 317 316 318 318 319 318 320 319 317 316 315 314 314 313 312 311 310
320 318 319 323 323 318 319 325 326 322 322 319 319 317 318 317 318 316 317 316 317 317 318 318 315 314 316 317 316 315 318 319 320 320 321 319 319 316 315 314 314 313 313 312 310
322 322 318 319 320 319 327 322 325 322 320 318 318 317 319 316 317 317 318 317 316 317 319 323 322 318 317 317 318 318 319 317 324 323 321 318 320 318 315 315 314 312 311 311 311
323 324 319 319 318 326 321 320 318 320 318 318 319 319 319 319 316 318 317 318 316 316 319 321 321 318 318 317 317 319 320 318 318 316 317 318 318 316 314 316 317 316 314 312 312
324 327 319 319 319 327 316 318 317 316 317 320 321 319 320 320 320 319 318 318 318 317 316 319 322 320 320 319 317 318 317 319 315 317 326 321 319 319 318 318 317 316 313 311 310
327 319 319 317 325 317 316 315 315 315 317 319 321 322 321 322 321 320 320 318 317 317 317 317 318 319 317 321 321 317 319 319 320 317 321 324 321 315 318 317 315 314 312 311 310
324 316 320 325 321 317 316 317 314 317 318 319 319 320 321 321 321 322 322 319 317 317 320 317 315 316 319 316 317 318 319 318 315 322 316 319 321 316 315 314 314 312 312 311 309
319 319 324 324 315 310 318 319 319 319 319 320 320 319 319 321 321 321 321 318 316 318 318 316 313 314 315 314 316 319 318 317 316 311 316 313 315 314 314 314 312 311 311 310 311
315 314 316 315 317 316 319 320 320 318 319 319 319 319 319 320 318 318 320 319 317 317 315 314 316 315 315 315 318 319 318 316 316 311 317 318 317 315 314 314 313 312 311 310 311
313 315 315 314 316 317 319 321 321 321 319 318 320 319 319 317 317 322 320 319 318 316 316 315 315 316 316 317 318 319 319 318 318 316 316 316 316 314 315 314 313 312 312 312 311
316 318 314 314 318 316 314 319 320 318 319 319 320 319 318 320 319 321 319 318 318 317 317 315 314 317 317 317 317 319 318 316 316 315 315 314 314 315 313 312 313 312 312 312 310
319 319 313 309 312 312 313 319 319 319 318 317 317 317 313 319 317 317 316 316 316 317 313 314 310 310 318 313 314 317 314 314 313 313 312 313 313 314 314 314 313 312 311 311 310

GFSSW_925_thetae_018.txt.gz
Theta_e
309 310 310 310 310 310 310 310 310 310 312 312 312 313 313 315 315 313 312 316 316 316 317 316 315 313 312 307 305 303 305 307 309 310 312 309 311 310 310 320 317 324 323 324 336
311 311 311 310 310 310 310 310 310 311 312 312 313 313 313 317 316 314 316 317 316 317 317 315 314 312 308 309 307 305 306 311 309 309 312 311 311 310 316 322 326 324 325 328 334
311 311 311 311 310 310 310 310 311 312 312 312 313 313 315 318 313 315 317 317 316 316 316 315 314 312 312 310 309 310 310 311 313 310 310 313 313 311 316 321 322 320 326 330 331
312 311 310 310 310 310 310 311 311 312 312 313 313 316 317 316 315 317 318 318 317 316 318 316 313 314 313 313 311 313 312 311 313 312 312 313 312 313 310 311 315 318 326 330 329
312 311 310 310 310 310 311 311 313 313 313 313 316 318 317 314 316 317 318 318 318 317 315 314 314 315 315 315 314 315 314 313 314 312 313 313 313 313 311 310 311 320 327 330 330
312 311 310 310 310 311 312 313 314 314 314 315 316 319 317 315 317 317 318 318 317 318 315 314 315 314 316 316 315 315 315 314 314 314 314 315 314 314 313 310 311 323 324 326 328
313 312 311 312 312 313 314 314 314 315 316 316 317 319 315 317 317 316 315 317 315 318 315 315 315 315 315 317 315 314 316 312 313 311 312 312 312 311 311 309 310 317 324 324 324
313 313 314 314 315 315 315 315 316 315 315 315 319 321 316 317 317 315 314 315 316 318 317 317 316 313 313 314 310 311 310 312 313 312 312 311 312 310 309 310 309 308 319 323 322
315 315 315 316 316 316 316 316 315 315 317 317 318 319 316 317 316 315 314 314 315 317 318 318 315 311 309 308 309 308 312 312 312 312 313 315 314 311 309 309 309 307 308 314 314
315 316 316 316 316 316 316 317 316 317 317 316 317 313 313 313 315 315 314 314 314 315 315 312 308 309 308 309 311 314 312 313 314 313 313 314 312 311 309 309 307 305 305 307 309
316 316 316 319 321 323 321 321 313 312 316 313 313 313 313 314 315 315 313 314 312 310 313 312 311 312 312 312 312 313 314 315 313 313 315 314 313 310 306 306 306 304 305 307 310
315 316 316 321 320 321 322 320 320 320 314 314 313 313 314 314 313 312 313 313 312 312 312 313 313 313 311 312 313 314 315 313 313 313 315 314 314 309 308 308 307 307 307 309 309
315 315 315 320 320 320 323 324 325 323 311 314 313 314 314 314 313 312 311 313 312 312 312 314 314 312 313 312 314 313 314 314 315 313 314 313 314 311 310 309 308 307 307 309 309
314 315 315 317 320 321 319 321 323 324 313 315 315 315 314 313 314 312 314 313 312 312 313 314 310 312 313 314 313 316 313 314 314 316 318 313 317 314 310 310 309 309 307 306 307
314 315 316 317 321 320 320 319 324 321 313 315 315 315 313 313 313 315 314 311 314 314 313 315 311 313 315 314 313 315 314 315 316 316 316 315 313 312 310 312 312 309 309 309 308
314 315 318 321 321 321 319 322 325 315 319 316 315 315 316 314 314 314 313 312 313 315 315 315 311 313 314 314 315 314 316 314 314 314 318 317 315 314 313 313 312 311 311 310 307
317 316 317 320 317 318 320 320 319 317 318 317 316 315 314 314 316 314 314 314 315 313 317 316 316 315 314 317 315 314 314 315 318 318 320 316 315 315 314 311 312 312 311 308 306
317 317 320 321 318 320 321 318 320 318 318 316 315 315 315 314 315 315 315 316 314 315 317 319 316 317 316 316 317 316 316 314 316 320 319 315 318 316 314 312 313 311 308 307 306
318 317 318 319 321 325 315 316 315 317 316 316 317 317 318 318 316 315 316 316 316 315 317 319 318 316 317 316 315 318 317 315 315 314 315 316 316 314 312 312 311 310 308 307 306
323 316 319 319 324 317 313 315 315 314 316 317 318 318 319 320 318 316 317 316 316 315 314 318 321 317 316 316 315 316 314 317 313 314 322 318 318 317 314 313 311 310 309 308 307
326 311 319 323 320 311 313 311 314 315 316 318 319 320 319 320 318 318 318 317 316 316 314 315 315 315 313 315 316 316 317 315 315 315 316 319 318 313 313 312 312 311 310 309 307
313 313 322 321 315 308 313 314 314 317 316 317 317 318 319 319 320 320 320 318 314 316 318 315 312 313 316 314 314 315 316 314 312 316 313 312 315 311 311 311 311 312 310 309 308
316 316 318 316 312 307 315 318 317 318 317 318 318 318 317 318 319 319 318 315 314 316 317 314 312 311 309 313 312 316 316 314 310 308 317 317 313 309 309 311 311 311 309 309 309
311 314 314 311 310 314 317 318 319 316 316 315 317 316 317 316 316 319 319 318 315 315 313 313 312 312 311 310 311 315 316 314 314 315 315 315 314 313 312 310 311 310 309 308 308
308 313 313 312 315 315 316 317 319 318 316 315 317 317 317 316 318 320 318 316 315 314 314 312 316 313 312 312 313 315 315 315 315 314 317 315 314 313 311 312 311 310 309 310 310
313 315 308 311 314 314 311 318 320 317 317 318 317 316 316 316 316 317 318 316 316 315 315 311 311 314 313 312 312 313 313 314 314 314 314 315 314 309 312 310 310 310 310 309 307
314 313 311 305 307 309 310 316 317 315 316 315 315 314 312 316 315 315 313 313 314 315 312 312 309 308 308 310 309 307 309 312 313 312 311 312 310 311 312 310 308 308 307 306 306

GFSSW_925_thetae_021.txt.gz
Theta_e
310 310 310 310 310 309 309 309 310 310 312 311 312 312 313 315 314 313 313 316 315 316 316 315 313 313 310 308 305 305 311 310 310 311 312 310 312 310 314 324 319 324 328 326 336
310 311 311 311 310 310 310 310 310 311 312 311 312 312 314 316 316 314 316 317 315 316 316 314 314 310 311 310 310 311 312 312 310 310 313 312 311 311 316 322 325 326 325 329 335
311 311 310 311 310 310 310 310 310 312 311 312 312 314 317 317 314 315 317 317 315 316 315 314 313 313 314 312 312 312 314 311 312 311 312 314 314 311 318 318 320 320 327 333 335
312 311 310 310 310 310 310 310 311 312 312 312 314 317 317 314 317 317 317 317 317 317 316 315 315 316 316 315 312 316 312 313 313 312 312 314 313 314 315 315 314 320 329 334 335
312 312 310 310 310 310 310 311 312 312 313 314 317 318 316 315 316 316 317 317 318 317 315 314 316 316 316 315 315 316 314 313 313 312 313 313 314 314 313 313 312 320 331 335 335
312 311 310 310 310 310 311 312 313 313 314 315 317 318 315 317 316 314 317 316 317 318 315 315 315 315 317 315 318 315 315 314 313 314 312 315 314 313 314 311 314 323 331 334 335
312 311 310 310 310 311 313 313 313 314 315 317 318 318 315 316 316 314 314 315 317 317 315 315 314 316 317 318 315 314 315 314 314 313 313 311 315 314 311 311 312 318 325 332 333
312 312 312 312 313 313 314 314 315 315 315 318 319 317 316 316 315 315 313 314 316 317 317 316 315 314 315 314 312 313 313 316 313 315 314 315 319 316 311 312 314 313 315 325 330
314 314 315 315 315 315 315 315 315 316 318 317 318 316 316 316 315 315 313 314 315 316 316 316 313 312 312 313 313 313 314 314 316 313 316 317 318 316 312 311 314 312 311 316 325
315 315 315 316 316 315 315 315 316 316 317 314 314 314 313 313 314 314 313 314 313 314 316 315 312 314 313 314 314 316 315 315 316 315 316 317 317 314 309 310 310 309 310 310 316
316 316 316 319 318 317 318 320 313 314 315 312 312 312 312 313 314 313 312 313 312 313 317 313 316 315 313 313 313 313 314 316 314 313 317 316 316 313 311 312 313 312 312 311 312
315 315 319 320 322 321 321 319 316 317 314 312 312 312 313 313 313 313 313 314 314 315 313 315 315 312 312 312 313 314 315 314 314 313 317 317 316 312 312 311 311 313 313 313 313
315 315 318 320 320 321 322 323 323 322 313 314 313 313 313 313 313 313 311 312 312 314 313 316 313 312 312 314 317 316 315 315 316 315 315 315 317 315 312 312 312 311 311 311 312
314 315 315 319 319 318 319 321 323 320 315 315 315 314 313 312 314 313 313 312 314 313 313 314 311 313 315 315 314 318 313 316 316 318 321 314 320 316 312 313 313 312 313 312 312
314 315 316 317 319 318 318 319 325 316 317 315 315 314 312 313 313 316 313 314 315 314 315 314 312 315 318 314 313 318 315 316 317 319 319 319 319 318 314 315 315 315 314 313 312
314 317 320 320 320 320 317 322 322 316 317 316 314 315 315 314 314 314 314 313 313 316 316 315 312 313 314 313 315 315 317 315 316 318 323 319 318 319 316 315 316 315 313 311 310
315 316 318 319 318 318 320 318 320 319 317 316 315 315 314 315 316 315 315 316 317 315 320 317 317 316 314 318 317 318 317 321 325 326 325 317 317 319 315 314 314 314 312 311 310
318 318 319 319 318 321 319 319 319 317 317 315 314 315 316 314 316 316 316 318 316 316 319 320 318 318 316 317 317 318 318 323 319 324 323 316 320 319 314 313 312 312 311 311 311
316 316 317 319 322 321 317 320 317 317 315 316 316 317 317 318 316 316 317 317 316 316 319 321 318 316 317 316 316 319 322 316 319 315 322 320 318 316 313 313 313 313 313 312 311
317 317 319 320 324 315 316 316 315 314 315 316 318 317 318 320 318 317 317 316 316 315 314 318 322 316 316 315 315 317 315 321 320 324 322 320 320 319 316 315 313 314 314 313 311
320 317 319 323 315 313 317 313 313 315 316 318 318 320 319 320 318 318 318 316 315 316 314 315 318 316 314 318 318 319 319 317 318 319 325 323 321 316 315 314 314 314 313 313 312
310 321 319 322 316 308 314 313 314 317 316 317 317 318 319 318 320 320 320 317 313 315 318 315 315 318 316 314 314 315 316 315 319 318 319 320 318 312 314 313 313 313 312 312 312
316 317 316 316 316 311 315 317 316 317 316 317 318 317 316 318 319 319 318 315 314 316 317 315 315 314 310 314 313 318 316 314 313 313 319 320 317 310 312 312 313 314 314 313 312
312 318 315 311 310 315 316 317 319 315 315 315 316 316 316 317 317 319 319 317 315 315 313 314 314 313 313 311 312 316 316 314 317 320 317 318 316 315 314 313 313 313 312 312 311
309 314 312 314 316 314 315 316 318 318 315 315 317 316 317 316 318 319 318 316 314 314 314 315 318 315 314 314 314 315 316 316 317 317 319 317 316 315 314 313 314 312 311 311 311
314 315 309 310 313 314 312 317 318 317 316 318 318 316 315 316 315 318 318 316 316 315 315 312 316 314 315 313 312 314 314 314 315 316 316 316 317 314 312 313 312 311 310 310 309
313 310 313 306 307 312 312 316 317 316 315 315 315 315 313 316 315 314 313 313 314 315 314 314 314 313 315 310 311 313 310 313 314 313 315 315 313 312 314 312 311 310 310 307 305

GFSSW_925_thetae_024.txt.gz
Theta_e
310 311 310 311 310 309 309 309 309 310 311 311 312 312 313 314 314 315 318 316 316 316 316 315 315 316 313 315 314 314 317 316 315 316 316 315 316 316 321 324 324 325 328 330 334
310 310 311 311 310 309 309 309 310 310 311 311 312 312 315 316 318 318 316 316 315 316 317 316 316 315 317 317 317 317 317 316 315 316 316 315 316 316 319 319 321 326 328 332 336
310 310 311 311 310 310 310 310 310 311 311 312 312 314 316 317 319 319 317 317 315 315 317 316 316 318 318 318 318 318 316 316 315 316 316 316 316 316 317 317 318 318 326 333 336
311 311 311 310 310 310 310 310 311 311 312 312 314 316 316 315 319 318 317 317 316 316 317 319 319 318 318 317 317 316 316 315 315 316 316 316 316 317 317 317 318 321 325 331 334
312 312 311 310 310 310 310 310 311 312 312 314 316 317 317 320 319 316 317 317 318 318 319 320 319 319 318 318 319 319 319 319 317 316 318 317 318 318 318 318 317 322 327 330 330
312 312 311 310 310 310 310 311 312 313 314 315 318 316 320 319 316 315 317 316 319 319 319 320 320 319 320 320 320 319 319 319 318 318 317 318 319 318 317 317 318 322 326 329 329
312 311 310 310 310 310 311 312 313 314 315 316 318 317 319 318 316 315 315 316 317 319 320 318 319 320 322 322 320 319 320 320 319 319 320 318 319 318 318 317 317 321 324 327 328
311 310 310 310 311 312 313 313 314 315 315 318 318 317 318 316 316 315 315 316 317 318 319 317 318 319 321 318 318 319 320 319 319 320 319 321 321 319 319 317 319 318 319 326 328
312 312 312 312 313 313 314 315 315 316 317 317 320 320 318 316 316 315 314 317 318 318 317 316 318 319 318 320 319 318 316 317 318 318 320 320 320 320 317 316 319 320 320 320 324
314 314 315 315 315 315 315 315 315 316 315 314 315 318 316 316 315 314 314 315 319 319 320 320 319 320 319 317 316 317 317 318 318 318 319 321 320 318 317 318 318 318 318 317 320
315 315 315 315 315 315 315 319 319 319 317 317 316 316 316 315 315 316 314 316 318 320 320 319 320 320 319 318 318 317 318 318 317 318 320 321 319 318 318 319 319 319 319 319 319
315 316 319 322 319 318 321 321 321 319 317 315 315 316 314 315 318 318 317 318 319 319 319 319 320 317 317 317 317 318 319 319 319 318 320 321 319 317 317 317 318 319 319 319 319
314 318 318 320 320 322 326 325 322 319 318 317 316 317 316 317 318 318 317 317 318 318 319 319 317 315 317 320 320 320 320 320 320 320 320 321 320 318 317 317 317 318 318 317 317
314 314 315 320 321 319 323 321 322 318 318 317 317 317 317 316 318 317 316 316 317 318 318 317 316 318 320 320 320 321 318 321 321 322 322 321 323 319 318 318 318 319 320 320 318
314 315 316 317 319 321 321 320 324 321 322 318 318 316 317 318 317 318 316 318 318 317 319 316 318 320 320 319 319 322 320 321 321 323 322 323 322 321 318 319 319 319 319 318 317
314 319 319 320 320 319 318 323 325 325 320 319 318 318 319 319 318 318 319 318 317 320 319 318 317 319 320 318 318 320 321 321 322 324 327 324 323 323 321 320 319 319 318 317 317
314 317 318 318 324 318 319 326 323 322 320 319 319 319 319 320 320 319 320 321 321 321 321 319 320 319 319 321 321 322 323 324 328 328 326 322 322 324 319 318 318 318 318 317 317
317 318 318 318 318 320 323 326 321 321 321 317 318 319 320 319 320 320 321 321 320 320 321 321 323 320 320 320 321 322 323 326 325 324 324 321 322 323 318 317 317 316 316 316 316
318 318 320 321 321 319 324 327 324 321 319 319 319 320 321 320 320 321 321 321 320 320 322 323 321 320 319 319 320 323 325 321 324 322 326 321 321 319 317 317 317 317 316 316 316
319 321 322 321 322 321 327 321 320 318 319 319 321 321 322 322 322 321 321 319 320 319 319 321 323 320 318 319 320 321 319 326 324 334 322 319 321 321 320 319 317 317 317 316 315
319 321 321 323 317 324 327 321 318 317 319 321 322 322 323 322 322 322 321 319 319 319 319 317 321 319 317 320 322 322 323 322 322 324 326 324 318 320 319 319 317 317 316 316 316
320 323 319 320 324 320 322 319 316 320 320 321 322 322 323 323 323 323 323 321 318 319 319 319 320 318 316 317 318 319 320 319 322 322 322 322 318 316 317 317 316 316 316 316 315
325 325 317 320 330 326 320 320 320 321 320 321 322 322 321 323 324 322 321 318 318 320 320 319 319 316 316 318 319 320 319 318 317 319 320 324 319 315 316 316 316 316 316 314 313
324 333 323 320 318 322 322 322 322 319 320 320 320 320 322 323 322 323 322 320 319 319 313 317 319 315 314 313 314 314 315 316 318 322 319 319 318 317 316 315 316 316 314 314 313
321 325 321 329 323 322 322 321 322 321 320 320 321 321 322 324 322 323 322 320 318 315 319 320 319 318 317 316 316 316 317 316 317 318 320 319 317 316 316 315 315 315 314 313 313
324 325 319 320 320 322 320 322 321 320 320 321 322 320 319 320 317 321 319 319 318 319 320 319 321 318 319 316 316 317 316 316 316 317 317 317 318 316 314 314 315 314 313 313 312
316 313 324 313 320 324 322 321 320 321 319 320 321 321 322 319 318 319 319 319 318 318 320 320 321 320 325 315 316 321 316 315 316 316 316 317 315 314 314 315 315 314 313 313 311

GFSSW_925_thetae_027.txt.gz
Theta_e
310 310 310 310 311 311 310 309 309 309 311 311 311 312 313 314 315 317 320 317 317 315 316 318 318 318 317 318 318 319 319 319 319 318 317 317 317 317 320 320 321 323 328 329 333
310 310 310 311 311 310 309 309 309 310 311 311 312 312 314 316 319 320 317 316 315 316 319 318 319 317 319 319 318 319 319 318 317 318 317 317 317 318 320 319 321 323 324 331 332
310 310 310 311 311 310 309 309 310 310 311 311 312 313 316 317 324 320 317 317 315 316 319 318 317 319 319 319 319 319 318 317 316 317 317 316 316 317 318 319 320 321 324 330 330
310 311 311 311 311 310 310 310 310 311 311 312 313 315 316 322 321 319 317 317 317 320 319 319 320 319 319 319 319 317 317 316 316 316 317 317 318 317 318 319 319 321 324 328 329
311 312 312 311 310 310 310 310 311 311 312 312 315 317 318 325 319 318 317 318 320 320 320 320 320 319 318 318 318 317 317 317 317 317 319 318 318 318 318 318 318 321 324 328 329
312 312 312 311 310 310 310 310 311 312 312 315 317 317 323 321 318 318 317 318 320 320 319 319 320 319 318 319 320 320 320 320 320 320 319 320 319 319 319 319 319 321 323 326 327
312 312 311 310 310 310 310 311 312 312 314 315 317 320 323 319 317 317 317 318 319 321 320 320 320 320 320 321 321 320 320 321 321 321 322 320 319 319 320 319 320 321 322 325 326
312 311 310 310 310 310 311 312 313 314 315 318 318 323 322 317 318 317 317 318 319 320 320 320 320 322 322 322 320 320 321 322 321 321 321 321 324 320 321 320 321 320 322 324 326
312 311 310 310 311 312 313 313 315 315 315 318 321 326 319 316 317 316 317 319 320 321 320 318 321 321 322 322 321 320 321 319 321 320 321 321 323 322 321 320 320 321 321 321 324
313 313 312 312 313 313 314 315 315 317 316 319 320 320 317 317 316 316 317 319 321 322 321 321 321 322 322 321 321 319 318 318 319 320 319 320 321 321 321 321 322 322 322 321 322
314 315 315 314 315 315 315 319 321 323 319 319 318 318 317 316 317 318 318 319 321 322 323 321 322 322 321 319 318 318 318 319 320 320 320 322 321 321 321 321 322 321 321 322 324
315 315 316 315 315 315 321 325 325 322 318 317 318 318 317 317 318 319 319 321 321 321 321 320 322 320 319 318 318 319 321 321 321 320 320 322 321 320 320 321 321 322 322 321 321
315 318 320 321 318 322 326 326 325 323 318 318 318 318 318 319 319 319 320 320 319 319 318 321 320 318 319 320 321 322 322 323 322 321 321 322 322 320 320 320 320 320 320 320 320
315 315 319 320 323 326 325 325 327 325 322 317 318 318 318 319 320 319 319 319 319 318 319 320 319 319 320 321 321 323 321 322 322 323 324 323 324 322 321 320 321 322 322 321 320
314 315 317 319 323 322 325 326 329 329 324 319 319 318 318 320 320 320 319 319 319 319 320 320 319 321 322 322 321 323 322 322 323 324 323 324 322 324 321 322 322 321 321 321 320
317 318 318 320 327 325 325 328 331 331 324 320 319 320 321 321 321 321 320 320 321 319 320 320 320 321 322 321 321 321 324 324 324 325 327 323 324 324 323 323 322 321 320 320 320
316 320 322 324 324 325 327 328 322 328 320 320 321 320 321 321 321 322 322 323 324 324 324 321 322 321 322 323 323 323 325 328 329 329 329 325 324 326 322 321 322 321 320 320 319
316 318 320 326 325 323 326 324 326 324 321 320 320 321 322 322 322 322 323 323 322 322 322 324 327 322 321 322 322 324 324 329 327 327 326 323 321 326 321 320 319 319 319 319 319
318 325 325 326 325 325 324 326 323 320 321 320 320 322 322 321 322 323 323 322 321 322 325 324 324 321 320 321 322 325 327 323 325 328 326 321 324 323 320 320 319 319 319 319 318
320 321 323 321 320 326 326 323 323 321 320 320 322 323 323 323 323 324 323 321 322 320 321 321 326 321 319 320 322 321 322 327 326 331 324 320 320 322 322 321 320 320 319 318 318
320 321 326 323 322 322 326 324 321 320 321 322 322 322 324 324 323 323 323 321 321 320 320 319 321 322 318 321 319 322 323 323 322 323 326 324 320 320 320 320 320 319 318 318 318
323 324 325 324 322 322 326 322 317 321 322 323 323 323 324 324 324 324 324 324 320 320 321 319 320 320 317 318 319 320 321 321 323 322 323 324 321 318 317 318 318 317 317 317 317
324 325 324 326 329 325 323 322 322 322 322 323 324 324 324 324 325 324 324 321 320 321 323 320 322 321 319 321 321 321 320 319 319 320 319 326 321 317 318 318 318 317 317 317 316
325 332 325 326 325 323 324 323 323 322 322 323 323 323 324 324 324 325 324 322 321 321 313 318 320 319 320 318 317 317 317 316 317 322 322 321 319 318 317 317 317 316 316 316 315
324 328 326 328 326 325 324 324 324 323 322 322 323 323 324 325 324 324 323 323 321 316 319 321 322 319 319 317 316 316 317 317 317 317 321 319 319 318 318 317 316 316 315 315 315
323 327 325 327 325 325 321 324 323 322 322 322 323 323 322 324 320 323 321 320 320 320 320 320 323 321 320 317 315 315 316 316 316 317 317 317 317 317 316 315 315 316 315 315 313
321 322 327 319 326 325 325 323 323 323 322 322 322 321 323 320 321 321 320 320 319 320 321 321 323 321 324 319 318 324 319 316 316 316 316 318 317 316 316 315 315 315 314 314 312

GFSSW_925_thetae_030.txt.gz
Theta_e
311 310 310 310 311 310 309 309 309 309 309 310 311 311 312 313 315 316 321 318 317 317 316 316 319 319 318 318 319 319 322 323 322 323 319 318 318 318 320 319 322 326 327 333 333
310 310 310 310 311 310 310 309 309 309 310 311 311 311 312 315 318 322 318 317 316 316 317 320 319 319 318 319 319 319 320 318 318 318 317 317 317 318 321 319 321 325 331 332 331
310 310 310 310 311 311 310 309 309 309 310 311 311 312 314 316 325 320 317 317 316 317 320 321 319 318 319 319 319 319 318 317 317 317 317 317 316 318 319 319 321 322 329 331 331
310 310 311 311 311 311 310 309 309 310 311 311 312 313 316 320 323 319 317 318 318 317 322 319 318 319 319 318 319 317 317 316 317 317 317 316 316 317 318 319 320 322 324 329 329
310 311 311 312 311 310 310 310 310 311 311 311 313 316 318 325 321 318 318 319 320 320 322 321 320 320 319 318 318 316 316 316 316 317 319 318 317 317 318 318 319 322 324 328 328
311 311 312 312 311 310 310 310 310 311 311 313 315 317 324 323 318 318 318 319 320 320 320 320 320 320 318 318 319 318 318 318 318 319 318 318 319 319 319 319 318 321 324 327 328
312 312 312 312 311 310 310 310 311 311 312 315 315 319 325 322 318 318 318 319 319 320 321 320 320 319 320 321 320 320 320 320 320 320 321 319 319 318 320 319 320 320 321 325 326
312 312 311 311 310 310 310 311 311 312 315 316 318 322 325 319 318 318 317 318 319 320 320 319 320 322 322 321 319 319 321 321 321 321 321 320 322 319 320 320 320 320 322 323 326
312 311 310 310 310 310 311 312 313 315 315 318 319 325 324 317 317 317 317 319 319 320 320 319 321 320 321 320 320 321 321 322 322 320 322 321 322 322 322 321 320 321 321 323 324
312 311 310 310 310 311 312 313 315 316 317 320 323 323 319 318 317 317 318 320 320 321 320 321 322 322 321 322 323 320 319 318 319 320 319 320 320 321 321 321 321 321 322 322 322
314 313 313 312 313 313 314 316 321 323 321 320 319 319 317 316 316 318 319 320 321 322 323 321 322 322 321 319 318 318 318 318 319 320 319 319 321 321 321 321 322 322 322 324 324
315 315 314 314 315 315 318 325 326 323 320 318 318 318 317 318 318 319 319 321 321 322 323 320 321 320 319 319 318 318 320 321 321 320 319 322 321 321 321 322 322 322 323 322 322
315 317 316 315 315 316 324 327 326 327 319 318 319 318 319 320 320 319 320 320 320 322 319 322 321 318 319 319 320 321 321 324 322 321 321 321 322 321 320 321 321 321 321 321 321
317 316 321 318 321 325 326 325 327 327 320 316 318 318 318 319 319 319 319 320 319 319 319 321 319 319 320 321 321 322 323 322 321 322 322 322 323 321 320 321 322 322 322 321 320
314 315 319 319 325 323 326 326 329 329 329 319 318 318 318 320 320 319 318 319 319 320 320 320 319 321 322 323 321 323 322 322 322 323 323 323 324 323 321 321 323 322 322 322 321
317 316 317 319 330 326 327 329 330 331 330 319 319 321 320 320 321 320 319 321 321 319 320 320 320 322 322 321 321 321 324 324 325 325 330 325 323 323 322 322 323 322 321 321 320
319 319 322 327 328 326 329 330 323 331 321 320 320 321 321 321 322 322 322 323 324 323 323 322 322 322 321 323 323 323 324 333 335 334 334 326 325 326 324 323 323 322 321 321 321
317 319 324 328 327 323 329 326 329 324 321 320 320 321 322 322 322 322 323 323 322 325 323 324 326 323 321 322 322 324 323 335 331 336 333 325 323 326 323 321 321 321 320 320 320
317 327 327 328 327 328 328 328 326 320 321 321 321 321 322 322 323 323 324 323 321 323 326 324 325 321 320 321 321 323 328 322 323 329 332 322 325 323 321 321 320 320 320 320 319
322 322 324 320 323 330 329 327 325 322 320 320 321 322 322 322 323 324 324 322 321 320 321 321 326 321 319 319 323 321 320 325 331 332 327 321 321 326 322 322 321 320 320 319 318
325 321 328 320 322 324 327 327 323 321 321 321 322 322 324 323 324 324 324 322 321 320 320 319 323 322 319 321 319 321 322 322 321 324 329 328 322 319 319 321 321 320 318 318 318
326 324 327 321 322 323 327 324 317 321 323 324 324 322 324 323 324 324 324 325 320 320 321 318 321 325 318 318 319 319 321 321 331 324 328 328 324 318 318 319 319 318 318 318 318
323 328 326 328 329 328 325 323 322 322 322 323 324 324 325 325 326 325 325 322 320 323 323 320 324 328 323 321 321 318 318 318 319 323 322 326 321 317 318 319 318 318 317 317 318
330 333 323 325 329 324 325 324 324 323 324 323 324 324 325 325 325 325 325 323 321 321 315 320 321 320 323 318 317 316 316 316 317 326 323 323 320 318 318 319 317 316 317 316 316
329 328 323 328 327 325 323 323 325 324 323 323 323 324 324 325 325 325 325 323 321 316 319 322 323 321 320 317 316 315 314 315 315 318 319 319 318 318 318 317 316 316 316 315 315
328 327 326 329 325 325 322 324 324 323 324 323 323 323 324 325 323 324 323 322 322 320 321 321 325 323 322 317 316 314 314 316 316 316 316 317 317 317 317 317 317 316 315 314 314
324 326 328 323 327 328 327 324 324 324 324 323 323 323 326 323 323 322 321 320 319 321 321 323 327 325 326 320 319 325 321 316 316 316 317 319 317 316 316 316 316 314 313 312 310

GFSSW_925_thetae_033.txt.gz
Theta_e
310 310 310 310 310 310 310 309 309 308 309 309 310 311 311 311 313 319 317 318 319 317 317 316 316 319 319 316 316 314 313 315 316 317 316 317 314 316 316 319 326 326 331 331 331
311 311 311 310 310 310 310 309 309 309 309 309 310 311 311 312 316 321 319 320 317 316 315 316 319 318 316 315 314 313 313 314 314 313 313 313 313 316 316 318 327 333 331 331 330
311 312 311 310 310 311 310 310 309 309 309 310 311 311 311 315 325 322 318 317 317 316 316 320 320 318 316 315 316 314 313 313 313 313 312 312 314 316 315 317 324 333 331 329 329
311 311 310 311 311 311 310 310 309 309 310 310 311 311 313 317 325 317 318 317 317 317 318 321 319 316 315 315 316 313 312 313 314 313 312 312 313 315 313 316 318 329 329 328 326
310 310 310 311 311 311 310 310 309 309 310 311 311 312 317 326 323 318 318 318 318 317 320 322 318 316 316 316 314 312 313 313 314 314 315 315 315 315 314 315 318 326 328 328 327
311 311 311 311 311 311 310 310 310 310 311 311 312 315 321 323 319 318 318 318 319 320 321 321 319 317 317 317 315 314 313 313 314 316 317 316 317 317 313 314 318 321 325 324 325
311 312 312 312 311 311 310 310 310 310 311 312 314 317 324 326 319 318 317 318 319 319 319 319 319 319 318 319 316 317 316 316 316 316 316 317 317 316 314 313 317 319 322 322 324
312 312 311 311 311 310 310 310 310 311 312 314 315 321 325 320 319 317 317 317 318 320 320 320 320 320 321 318 318 317 316 317 317 317 318 317 317 314 314 316 316 315 316 319 322
312 311 311 311 310 310 310 311 311 312 314 314 317 322 324 318 316 317 316 318 319 319 320 319 318 319 319 316 316 317 317 318 319 317 319 317 318 315 316 318 318 316 315 316 320
312 311 310 310 310 310 311 312 314 314 316 316 320 323 323 317 316 316 317 319 319 320 319 319 318 318 316 316 319 317 317 320 317 317 317 316 318 318 319 318 317 316 317 321 321
313 311 311 310 310 311 312 314 318 321 321 320 319 322 316 315 315 316 318 319 320 320 320 319 318 319 317 317 317 317 317 316 317 317 317 316 317 317 317 315 319 319 320 320 320
314 313 313 313 313 313 316 324 325 324 321 321 318 318 317 317 317 318 319 319 320 320 320 319 319 317 318 317 318 317 319 321 317 318 316 317 318 317 318 318 318 318 318 318 319
314 314 314 314 314 314 316 325 326 325 318 318 318 317 318 318 319 317 319 319 319 320 320 319 318 317 318 320 320 321 321 320 320 319 319 319 318 318 318 318 318 317 316 318 319
316 316 316 315 316 316 322 325 326 328 317 317 317 317 318 318 318 318 318 319 319 319 318 318 318 319 319 321 319 323 322 321 321 319 320 318 317 318 318 318 319 318 314 316 317
314 317 320 318 321 328 325 326 324 328 321 317 319 316 317 319 317 318 318 319 319 319 319 319 318 321 323 321 320 322 320 321 321 321 321 321 319 317 318 322 321 318 318 316 315
317 316 319 319 324 326 325 325 327 328 322 320 318 319 317 320 320 317 318 319 320 318 317 318 319 320 320 320 320 321 321 322 322 322 323 325 322 318 319 322 321 319 318 316 315
318 317 321 328 329 326 324 328 321 331 321 318 319 320 321 321 320 320 319 321 322 321 320 320 321 320 320 321 321 321 321 326 326 326 326 328 328 329 322 321 320 319 318 316 315
319 319 327 328 326 324 328 325 328 323 320 318 320 321 322 321 321 322 321 321 320 324 323 324 324 320 320 320 321 322 322 322 329 327 327 321 326 323 319 319 319 318 317 316 315
317 322 328 322 320 321 325 329 328 323 321 320 320 322 321 322 322 323 321 321 319 319 324 326 323 319 319 318 319 319 323 320 321 323 323 323 322 320 319 320 319 319 318 316 315
323 323 328 322 318 328 326 328 324 321 320 320 321 321 322 321 322 323 323 322 320 319 319 320 324 320 318 318 322 321 318 320 323 324 326 321 325 327 321 320 319 318 317 318 316
324 320 328 325 318 322 324 327 322 320 323 324 322 321 324 321 322 324 324 321 321 319 317 318 321 320 317 317 318 319 321 320 320 319 321 320 319 318 319 319 318 317 317 316 314
327 321 327 323 319 320 321 324 317 321 322 323 324 322 324 322 324 324 325 322 319 320 320 317 320 318 318 317 318 318 320 320 317 321 319 317 317 315 317 317 317 316 316 315 315
323 326 327 328 318 321 322 323 321 321 321 322 324 324 324 325 325 326 324 321 321 320 321 319 319 318 321 320 320 318 317 316 318 314 317 313 314 315 318 317 318 316 314 313 312
326 321 324 324 324 326 325 323 324 323 323 323 323 323 324 324 324 326 324 323 320 318 314 318 320 318 318 318 315 315 314 313 315 314 317 316 318 316 318 318 316 314 312 312 312
326 324 319 319 319 324 323 323 325 324 323 323 323 324 324 324 325 326 324 322 321 315 319 320 320 321 320 316 315 314 314 312 312 313 314 314 317 316 316 315 314 313 313 313 312
329 328 323 320 319 324 321 322 325 324 323 323 323 323 323 324 324 325 324 321 322 319 321 319 320 318 317 318 316 314 313 314 315 316 316 316 316 314 314 313 313 312 312 310 308
324 325 325 323 321 324 324 324 324 324 323 323 322 322 320 321 319 318 317 317 319 319 320 322 315 313 316 316 313 313 316 315 315 314 315 316 315 314 314 312 311 309 308 307 305

GFSSW_925_thetae_036.txt.gz
Theta_e
311 310 310 310 310 310 310 310 309 308 308 308 309 310 310 311 312 315 317 316 318 318 317 315 315 317 317 316 316 313 312 312 313 317 317 314 316 315 320 327 329 328 332 330 325
311 311 311 311 310 310 310 310 309 309 308 308 309 310 310 311 315 319 317 317 320 316 316 315 315 316 315 315 315 312 311 314 313 315 313 312 314 315 325 332 332 331 330 327 323
311 311 311 311 310 310 310 310 310 309 309 309 309 310 311 313 323 321 321 319 318 316 315 316 316 317 316 315 313 310 311 313 313 312 312 313 315 315 322 331 333 333 329 325 322
311 310 310 310 311 311 310 310 310 309 309 309 310 311 312 316 322 318 317 317 316 315 314 319 320 319 314 314 313 311 312 313 314 312 311 312 312 314 316 323 331 330 328 325 322
311 310 310 311 311 311 311 310 310 309 309 310 310 311 316 324 320 319 316 316 316 316 317 320 320 316 314 314 311 311 312 312 313 313 311 311 313 314 315 321 329 329 328 327 324
311 311 311 311 311 311 311 310 310 309 309 310 311 313 319 321 318 318 317 317 317 317 319 319 320 317 316 314 312 312 312 312 314 315 315 314 314 315 314 322 329 329 328 327 325
311 311 311 311 311 311 311 310 309 310 310 310 312 315 322 322 319 319 317 317 317 318 318 318 317 318 317 315 313 312 313 314 315 316 315 315 317 313 312 324 329 329 328 327 326
312 311 311 311 311 311 310 310 310 310 310 312 314 319 320 315 318 319 317 317 318 319 320 319 318 318 317 316 316 316 314 316 316 315 317 315 315 314 311 316 323 325 326 325 322
312 311 311 311 311 310 310 310 310 311 312 314 316 321 316 319 316 317 316 317 319 319 319 318 318 317 315 314 314 314 314 316 318 315 317 316 316 314 311 312 313 312 319 320 320
312 311 310 310 310 310 310 310 312 314 316 315 318 321 320 322 316 316 317 318 319 318 317 317 314 315 313 313 316 316 314 317 317 316 315 316 317 316 315 316 318 319 319 319 319
312 311 310 310 310 310 311 313 315 318 319 315 318 321 317 317 315 316 317 318 319 319 319 318 316 317 314 314 315 315 315 316 316 316 316 315 316 317 316 318 319 319 319 319 318
313 312 311 310 311 311 316 320 321 322 318 318 320 318 319 315 316 316 318 318 318 319 319 316 317 316 316 317 318 317 318 318 317 317 314 315 317 316 317 318 319 319 319 319 318
314 314 313 313 313 313 315 322 324 327 324 316 318 316 317 318 317 317 318 318 319 318 319 317 317 316 319 318 321 321 319 320 319 318 317 315 317 319 317 316 318 317 318 318 318
315 315 314 314 314 318 316 323 326 327 314 317 317 316 318 317 317 317 317 318 319 317 315 316 317 318 320 319 319 323 320 320 319 317 317 316 317 317 317 317 317 318 317 317 318
314 316 315 315 320 325 326 326 326 325 315 315 317 316 316 319 317 317 317 318 318 317 316 318 319 320 320 320 319 321 319 319 320 319 319 319 316 315 319 320 318 316 316 316 316
315 317 319 317 322 327 325 323 325 325 318 317 317 317 316 318 317 316 317 317 318 317 316 318 318 318 319 319 319 320 321 321 320 320 321 322 321 316 319 321 319 317 316 315 315
316 317 319 325 328 325 320 320 316 326 319 318 317 316 318 319 319 318 319 319 321 319 319 319 320 319 319 320 318 319 320 322 325 324 324 325 327 325 321 320 319 317 315 314 313
318 320 328 329 326 322 325 318 326 323 320 317 319 319 320 320 320 320 319 320 317 323 319 321 323 318 318 319 320 320 321 320 327 324 321 321 326 321 318 318 317 316 315 315 314
318 323 325 321 319 319 319 326 324 323 319 319 319 321 321 321 320 320 319 319 318 318 322 323 321 319 317 317 318 318 321 318 319 319 319 321 320 319 319 320 320 319 320 319 315
321 325 326 321 319 323 322 325 324 320 320 319 320 320 320 320 321 321 321 320 319 317 317 320 322 319 318 317 318 318 316 320 318 321 325 320 323 324 320 320 319 317 316 316 316
324 316 325 323 320 315 320 323 322 320 322 321 322 320 320 320 320 322 322 321 319 319 315 318 319 319 318 316 317 317 319 318 317 317 320 319 317 317 318 317 316 317 317 316 312
320 318 327 325 311 316 317 321 319 320 321 322 322 324 321 320 323 324 323 321 319 320 317 317 316 315 318 316 317 317 319 318 315 318 317 314 314 317 316 317 316 315 314 312 310
318 323 327 327 309 316 317 322 321 320 320 321 322 323 322 323 325 325 322 320 317 318 320 316 316 315 318 318 317 317 317 316 316 311 316 310 313 312 315 313 312 312 312 311 310
321 319 318 320 316 317 320 322 323 321 322 322 322 322 322 323 323 324 323 321 317 315 314 317 317 315 318 317 314 314 313 311 313 312 314 314 315 315 316 314 312 311 311 310 309
321 319 314 313 316 323 321 321 323 323 322 321 321 322 322 323 324 324 322 321 319 315 318 317 318 319 317 315 314 314 313 311 311 310 311 313 315 315 314 313 312 311 311 309 307
324 323 317 314 314 319 320 321 323 323 322 322 322 322 321 322 321 323 321 320 320 317 319 317 318 315 314 316 314 313 311 314 313 314 314 314 316 314 312 311 311 310 309 308 305
324 324 318 319 314 320 320 319 323 322 322 322 321 318 317 319 316 315 315 317 318 317 319 318 312 309 308 312 310 310 314 314 314 314 314 314 313 312 312 311 309 307 306 305 304

GFSSW_925_thetae_039.txt.gz
Theta_e
311 311 311 311 311 310 310 310 310 309 308 308 308 308 310 310 311 313 316 314 317 317 315 315 315 315 316 315 314 311 312 313 328 324 321 322 316 318 325 333 330 328 328 329 332
311 311 311 311 311 310 310 310 310 309 309 308 308 309 310 311 314 318 315 315 316 317 316 315 314 315 315 315 314 312 312 312 321 325 324 314 323 322 331 333 332 330 324 327 326
311 311 311 311 311 310 310 310 310 310 309 308 308 310 310 312 320 317 319 319 316 318 316 315 315 316 317 315 312 311 312 310 312 322 317 312 314 318 331 334 333 331 324 323 323
311 311 310 310 310 310 310 310 310 310 309 308 309 310 311 316 317 318 317 317 318 317 315 316 319 319 317 315 313 312 311 312 312 311 312 312 312 323 321 331 330 328 322 322 322
312 311 311 311 310 310 311 310 310 309 309 309 310 310 315 322 318 319 318 316 316 315 314 318 319 317 313 312 311 311 312 312 312 310 310 311 313 313 316 328 329 327 322 322 322
311 311 311 311 311 311 311 311 310 309 309 309 310 312 317 318 317 319 318 316 316 315 317 318 318 316 315 314 311 311 310 311 313 313 313 313 313 315 315 328 328 328 325 322 321
311 311 311 311 311 311 311 311 310 309 309 310 311 315 321 319 317 316 318 317 316 317 316 317 318 316 313 313 311 311 312 313 314 314 314 312 315 315 315 329 330 329 327 324 322
311 311 311 311 311 311 311 310 309 309 310 311 313 318 319 316 317 318 318 316 317 316 319 317 316 317 315 313 313 314 312 314 315 315 314 313 313 314 317 329 329 327 326 323 319
311 312 311 311 311 311 310 309 309 310 311 313 316 320 315 316 317 317 316 316 318 318 318 318 317 313 313 312 312 312 315 316 316 314 316 315 316 314 310 322 315 318 318 319 318
312 312 311 310 310 310 310 309 310 312 313 315 317 318 318 318 317 316 316 317 318 317 315 315 313 314 311 311 313 315 315 315 316 315 315 316 316 312 311 316 317 317 318 318 318
312 311 310 310 310 309 309 312 314 317 317 313 315 318 319 317 314 315 316 318 317 315 316 316 314 316 314 314 315 315 314 315 315 314 313 314 314 314 316 318 318 317 318 317 317
313 312 310 309 309 310 313 315 316 320 318 317 319 318 318 318 315 315 317 317 317 317 318 315 317 316 315 317 316 316 315 316 317 315 314 314 314 314 315 318 318 318 317 316 316
313 312 311 310 310 311 314 320 323 322 322 317 316 316 316 316 316 316 317 317 317 318 317 316 316 316 317 318 320 319 318 318 318 316 313 315 316 318 316 317 318 317 316 316 315
313 313 312 312 312 314 314 317 326 326 314 315 316 315 316 316 316 316 316 316 317 317 314 315 317 318 317 318 318 322 319 318 318 315 312 314 318 318 317 318 318 318 316 316 316
314 314 313 313 319 323 324 326 327 322 316 313 316 315 315 317 316 315 315 317 316 316 314 317 319 318 319 319 318 320 318 318 319 317 318 319 315 315 317 319 318 317 316 317 316
313 314 314 313 318 326 325 324 323 320 315 314 316 315 316 317 316 315 316 316 316 316 315 317 316 318 319 318 318 319 319 319 318 318 321 321 320 315 318 318 317 316 316 316 316
315 317 317 320 327 326 323 314 314 325 318 316 317 315 316 318 317 316 318 318 318 316 318 318 319 316 318 320 318 317 319 321 324 323 323 321 324 321 318 317 317 316 315 314 313
316 317 318 325 327 322 321 313 321 321 317 315 317 316 318 318 318 319 319 318 316 318 317 320 321 318 317 318 319 319 320 318 326 323 318 320 324 321 317 316 316 315 313 313 313
317 319 326 324 323 323 314 316 322 322 317 317 318 319 320 320 319 318 318 317 317 317 320 320 320 318 316 317 317 318 319 316 319 316 317 319 320 318 318 317 316 316 315 316 316
319 325 325 321 322 321 318 319 324 320 318 317 320 319 320 319 320 320 320 319 318 315 316 319 321 318 316 316 315 315 315 320 316 319 322 319 321 321 319 319 318 318 318 317 314
322 314 324 323 321 312 315 321 323 318 320 318 318 319 319 319 319 321 321 319 318 319 314 317 316 317 317 315 316 316 317 315 316 315 318 317 317 312 317 317 316 316 316 310 308
315 314 326 325 310 312 318 320 319 319 319 321 321 321 319 319 323 322 322 320 318 319 315 316 314 315 316 314 316 316 318 314 310 315 314 313 313 315 314 314 314 314 311 309 308
317 322 326 322 309 315 316 319 320 319 319 321 322 322 321 322 323 322 321 319 315 317 318 315 314 314 316 316 315 317 314 315 312 309 315 308 311 312 312 312 311 310 309 308 307
316 319 317 317 310 314 316 319 322 320 321 320 321 320 320 322 321 322 322 320 315 313 313 314 316 313 315 316 314 312 311 312 312 312 313 312 313 315 313 312 312 310 309 307 305
317 316 313 314 319 320 316 320 322 322 320 319 321 321 321 323 323 322 321 320 317 314 316 314 317 317 314 313 313 313 311 310 310 309 310 309 313 313 313 311 311 310 309 307 305
322 319 314 310 313 319 318 320 321 322 321 321 320 321 320 320 320 322 320 318 315 316 317 315 316 314 314 314 312 312 310 310 311 310 310 314 316 312 311 310 310 308 307 306 305
319 321 315 314 313 314 318 319 321 320 321 320 319 317 316 318 317 315 315 315 316 316 318 314 310 307 305 309 306 304 308 312 312 313 312 315 312 310 311 310 308 306 305 304 303

GFSSW_925_thetae_042.txt.gz
Theta_e
311 311 311 311 310 311 311 310 310 310 310 309 308 308 308 309 310 312 315 312 316 315 314 315 314 314 315 315 313 309 310 322 326 329 326 321 330 321 327 332 330 328 331 333 335
311 311 311 312 311 310 311 310 310 310 310 309 308 308 309 310 313 316 312 313 314 315 316 314 313 313 313 315 313 311 310 315 324 324 326 324 318 325 333 333 331 326 328 330 332
311 311 311 311 310 310 311 310 310 310 310 309 308 308 309 312 317 315 318 319 316 315 317 315 314 314 315 313 312 312 312 311 319 326 324 321 321 322 331 334 330 328 329 327 326
311 311 311 311 310 310 310 310 310 310 310 308 308 309 310 316 316 317 318 316 318 316 316 314 316 317 317 316 313 312 311 311 317 325 321 313 314 330 325 327 329 326 327 325 324
311 312 311 311 311 310 310 310 310 310 309 308 309 310 314 320 317 316 317 317 317 317 314 316 317 317 315 312 310 310 311 311 310 313 311 311 313 325 316 328 325 323 326 324 322
312 312 311 311 311 311 311 311 310 310 309 309 309 311 317 317 315 318 317 316 315 315 314 315 317 317 315 312 311 311 310 311 310 309 309 312 312 314 319 327 325 323 324 322 322
312 312 311 311 311 311 311 311 310 309 309 309 310 314 319 317 316 316 317 316 316 316 314 316 317 316 314 313 310 311 312 312 312 312 313 311 314 314 321 328 328 324 322 320 320
312 311 311 311 311 311 311 310 310 309 309 310 312 317 319 315 315 318 319 317 315 315 317 317 317 315 313 311 312 313 311 311 313 314 313 312 312 313 324 328 327 326 324 319 319
312 311 311 311 311 311 310 310 309 309 309 312 315 319 317 315 318 317 315 315 317 316 316 315 314 313 312 311 311 311 314 315 316 314 315 314 315 308 323 325 320 318 319 319 318
312 311 311 311 310 310 310 309 309 310 312 314 316 317 315 316 318 315 315 316 317 316 314 314 311 312 310 310 313 313 314 315 316 315 314 315 312 314 313 318 318 317 317 317 316
312 311 311 310 310 310 309 311 312 314 316 314 315 314 317 317 314 314 315 317 315 314 317 314 314 314 313 313 313 314 313 314 314 313 312 312 314 315 316 316 317 317 316 317 315
312 312 311 310 309 309 310 312 313 317 319 315 316 317 317 317 316 314 317 317 316 317 316 315 315 314 316 314 314 314 314 315 315 313 312 314 316 315 316 317 317 316 316 315 314
312 312 311 309 309 310 313 316 323 321 322 319 316 315 314 316 315 315 316 316 316 317 315 315 315 315 317 317 318 318 316 317 316 314 312 315 315 317 317 317 317 316 315 314 314
312 312 311 310 311 312 312 316 325 322 312 314 316 315 315 315 315 315 315 316 315 316 314 315 316 316 316 317 317 320 318 317 316 313 315 313 317 318 317 318 318 317 315 315 314
311 312 312 311 316 318 319 326 327 318 314 313 315 314 314 315 314 315 315 315 315 315 314 317 318 317 317 318 317 320 316 317 316 316 316 318 314 314 317 320 319 317 316 315 314
312 313 312 312 316 320 326 324 319 318 321 315 314 314 316 316 315 314 316 314 313 315 314 317 316 316 318 316 317 316 318 317 317 317 320 321 320 317 317 317 317 316 316 315 314
312 313 313 314 324 326 324 312 315 318 317 316 315 314 316 317 316 316 317 316 315 317 318 317 317 315 316 319 316 316 317 320 323 321 322 319 321 318 316 316 317 316 315 314 313
313 313 314 318 328 326 320 311 315 317 319 314 314 315 317 317 318 317 317 317 316 314 316 319 319 317 315 317 318 319 317 319 326 324 320 318 323 320 316 315 315 315 315 314 313
315 315 321 322 327 324 311 313 314 320 317 316 316 318 319 318 318 317 317 316 316 316 319 319 319 316 315 317 316 318 317 314 318 315 317 317 319 317 316 316 316 315 314 313 312
316 318 323 324 324 318 312 313 318 320 318 316 317 318 319 319 319 318 320 318 316 314 315 318 320 316 315 315 314 315 314 319 314 316 318 317 318 319 319 317 316 315 313 313 313
320 315 322 325 319 310 313 314 321 319 318 317 317 318 317 318 319 320 319 318 317 318 315 316 314 315 316 314 316 316 316 314 315 314 316 314 315 312 318 317 316 315 315 310 307
312 315 325 322 310 310 316 318 318 318 318 320 319 318 317 319 321 320 320 319 317 318 316 315 312 315 315 314 314 315 316 312 309 314 313 312 313 313 313 314 314 312 308 306 305
316 321 323 314 311 314 314 317 319 318 319 320 321 320 319 321 322 320 320 318 313 316 315 313 313 314 315 313 314 317 314 312 309 308 314 307 308 311 312 311 310 308 307 306 304
315 320 316 313 308 313 314 317 320 319 320 319 319 319 320 322 319 320 321 318 313 313 313 313 313 313 315 313 312 312 311 313 311 310 312 311 311 314 313 312 310 309 307 305 304
313 316 315 317 318 313 313 316 320 321 319 317 319 320 320 322 322 321 320 319 315 314 315 311 315 315 313 312 312 311 310 309 310 309 310 309 311 310 311 310 309 308 306 305 304
320 315 309 309 317 317 315 319 319 321 320 320 319 320 319 319 318 320 318 316 311 315 316 312 314 312 315 312 310 312 310 308 308 308 308 311 311 311 310 308 309 308 306 305 304
317 317 312 311 314 316 317 318 319 319 320 318 318 316 318 318 316 314 313 312 313 315 315 312 309 309 310 307 304 305 308 308 310 309 309 312 310 310 310 310 308 306 305 303 302

GFSSW_925_thetae_045.txt.gz
Theta_e
311 311 311 311 311 311 310 310 311 310 310 310 308 308 308 308 309 311 314 312 315 312 312 315 314 313 314 315 313 310 315 326 329 328 329 329 328 327 329 332 331 327 336 336 334
311 311 311 311 311 311 310 310 311 310 310 310 309 308 308 309 312 315 312 312 312 316 315 314 314 314 316 316 315 314 316 321 326 328 331 328 327 326 334 333 331 332 332 333 333
311 311 311 311 311 310 310 310 310 310 310 310 308 308 309 311 317 314 317 317 313 314 317 316 313 314 316 314 315 314 317 315 324 326 328 329 322 328 335 335 332 334 336 333 333
311 311 311 311 311 310 310 310 310 310 310 309 308 308 309 316 316 316 317 316 317 314 316 315 314 317 317 317 315 315 313 316 326 324 319 323 320 331 333 328 330 333 335 333 332
311 311 311 311 311 311 310 310 310 310 310 309 308 309 313 318 318 315 317 316 316 315 315 314 317 317 318 316 312 313 312 311 313 316 313 315 321 329 325 329 329 332 333 333 331
311 311 312 311 311 311 311 310 310 310 309 309 309 310 316 316 314 316 317 316 316 316 314 315 317 318 316 313 312 311 311 310 312 316 313 315 314 322 321 326 329 332 333 330 328
311 311 312 311 311 311 311 311 310 310 309 309 309 313 318 318 315 317 315 317 316 315 315 314 316 317 316 312 310 312 313 313 312 312 313 313 314 314 326 327 328 331 329 326 324
311 312 311 311 311 311 311 310 310 309 309 309 311 316 319 314 315 315 317 316 314 315 315 316 316 317 314 312 313 314 314 315 314 313 312 314 316 310 329 329 328 327 325 324 322
311 312 311 311 311 310 310 310 310 309 309 312 314 318 319 315 316 316 314 314 315 314 315 314 315 314 313 315 316 314 315 316 316 314 314 315 315 314 321 329 328 326 324 323 322
311 312 311 311 310 310 310 309 309 310 311 314 315 317 314 315 317 315 314 315 316 315 315 315 315 316 314 315 317 317 316 315 317 315 315 315 316 317 318 324 322 322 322 322 321
312 312 311 311 310 310 309 310 313 314 315 315 314 315 315 316 315 313 314 316 315 317 318 316 318 318 315 313 313 314 314 316 315 313 317 317 319 319 319 321 322 322 322 321 320
312 312 311 311 309 309 309 311 313 315 321 315 316 316 316 316 316 313 315 316 317 318 316 317 317 314 315 313 315 315 316 317 316 313 316 318 320 320 320 320 320 322 321 321 322
312 311 311 310 309 309 310 313 320 319 324 317 317 316 314 315 315 314 315 315 316 317 316 319 316 315 317 318 320 318 318 318 318 315 315 317 319 321 320 320 319 319 319 320 321
312 311 312 310 309 310 310 312 314 319 315 314 315 315 314 314 315 313 314 316 315 317 314 318 316 316 317 319 318 321 317 316 316 316 320 315 320 319 321 322 322 320 320 319 319
312 311 312 309 312 312 315 317 326 316 317 313 314 314 313 315 314 314 315 314 316 315 315 318 317 317 319 317 316 320 317 318 317 319 318 321 320 318 321 324 323 321 319 319 318
312 311 312 311 312 316 323 324 318 320 323 314 314 314 316 315 314 313 317 314 313 317 317 317 315 316 318 316 316 317 320 320 319 321 325 322 324 324 321 322 322 320 319 318 317
312 311 312 312 316 323 324 314 318 321 316 315 314 314 316 316 316 316 317 319 318 321 321 319 318 316 316 320 318 319 321 323 324 326 324 320 323 323 318 317 322 321 319 318 317
312 311 313 312 315 326 317 313 318 316 319 313 313 315 317 316 317 317 318 320 317 316 319 321 320 317 315 318 320 320 320 328 326 328 325 319 326 323 318 317 318 319 319 318 318
311 312 313 313 313 316 312 315 317 315 318 315 315 318 318 318 318 318 317 317 316 316 321 321 320 315 314 317 317 320 321 317 321 317 322 319 320 318 318 318 318 320 319 319 318
313 314 316 319 322 315 314 314 313 318 317 314 315 317 319 319 319 319 319 317 316 314 316 319 322 315 314 315 315 317 316 323 319 322 318 317 320 321 322 320 319 320 320 318 315
317 319 319 324 320 312 315 314 318 320 318 316 317 318 317 319 319 320 319 318 316 316 315 316 319 317 316 316 319 319 319 317 318 317 317 318 316 317 319 320 320 320 318 316 312
312 316 322 320 313 310 314 314 318 318 316 319 316 317 318 319 321 320 321 319 316 317 318 315 316 319 317 314 314 315 317 317 319 317 316 318 318 314 316 317 317 317 313 311 308
312 320 319 311 314 313 313 316 318 317 318 319 321 318 319 321 322 320 320 316 314 315 318 315 316 319 318 315 315 317 316 312 311 314 318 324 315 313 314 314 315 314 310 308 307
318 322 318 311 308 314 315 315 318 318 319 318 319 319 321 321 320 321 321 317 313 314 313 314 314 317 321 316 315 315 314 313 315 318 315 315 313 313 315 315 312 311 310 308 307
313 318 317 319 315 312 313 316 319 321 318 317 320 319 321 322 321 321 320 317 314 315 315 315 317 315 314 313 312 311 311 314 314 313 318 313 313 312 315 315 313 311 309 307 306
316 314 309 312 316 313 313 318 319 319 320 319 321 319 319 321 320 322 319 316 313 316 316 313 318 313 316 312 311 313 311 310 310 309 311 310 311 309 311 312 312 310 308 308 306
316 312 312 309 315 313 314 317 319 320 319 317 319 318 319 318 316 314 313 313 314 317 316 313 315 315 316 308 306 313 312 312 311 310 311 313 313 313 312 313 313 311 309 307 305

GFSSW_925_thetae_048.txt.gz
Theta_e
310 310 311 311 311 311 311 310 310 310 310 310 310 309 308 308 308 316 316 314 313 312 315 315 315 315 315 316 318 318 319 327 330 331 335 332 331 329 331 334 334 333 338 339 336
310 311 311 311 311 311 311 310 310 310 310 310 309 308 308 308 314 316 315 313 312 313 315 317 316 316 316 316 319 318 321 322 326 332 332 328 328 326 331 334 334 336 340 339 337
310 311 311 310 311 311 311 311 310 310 310 310 309 308 308 310 319 318 317 316 313 315 317 318 316 316 316 317 319 319 320 321 326 331 328 329 328 326 330 330 333 335 342 339 338
310 311 311 311 311 311 311 311 310 310 310 310 309 308 309 317 319 318 316 316 315 315 316 317 317 316 315 317 318 318 318 321 328 328 326 326 325 327 330 330 331 334 339 339 339
310 311 311 311 312 311 311 311 310 310 310 310 309 308 315 320 318 316 317 316 315 315 317 319 318 317 316 316 318 318 316 323 325 325 324 327 325 328 331 331 332 337 339 338 336
310 311 311 311 311 311 311 311 310 310 310 309 308 309 319 319 315 317 317 316 317 316 317 318 318 318 320 319 318 318 316 322 318 325 320 324 326 326 328 331 335 338 336 334 331
310 311 311 312 311 311 311 311 310 310 310 309 309 314 318 318 316 319 317 317 318 317 319 318 318 320 321 315 313 314 315 314 316 322 323 321 322 321 328 331 334 333 333 332 330
310 311 311 312 311 311 310 310 310 310 309 309 310 317 320 316 317 317 317 318 317 317 317 317 317 319 319 315 316 316 317 319 317 322 317 320 319 318 331 330 332 332 332 331 328
310 311 311 312 311 311 310 310 310 309 309 311 316 319 320 316 317 317 317 316 316 317 316 316 318 319 316 317 317 316 317 318 317 317 318 318 318 319 329 330 331 332 331 331 328
310 311 312 311 311 310 310 310 309 309 310 315 316 322 320 318 317 317 315 316 319 318 317 318 319 319 317 317 318 318 316 317 317 318 318 318 320 320 329 331 331 330 330 330 329
310 311 312 311 311 310 310 313 317 319 317 319 317 319 317 317 316 315 315 318 320 320 318 320 321 318 318 317 318 319 318 317 318 318 320 319 322 321 328 331 331 331 331 330 329
311 311 312 311 311 309 310 315 317 320 322 318 317 317 316 317 318 317 317 318 318 318 321 321 320 318 318 318 318 318 319 320 319 317 321 323 324 322 326 329 331 331 331 330 329
311 312 312 311 310 310 313 313 320 317 327 320 319 317 317 318 318 317 318 319 318 319 321 320 319 319 319 320 320 321 321 321 320 319 321 323 324 325 323 326 326 327 328 329 330
311 312 311 311 310 313 313 312 314 315 324 317 317 317 316 318 318 316 317 319 320 320 320 321 319 320 321 321 322 322 320 320 320 321 321 321 321 325 326 326 325 326 328 328 327
311 312 311 310 315 313 317 315 318 321 318 316 317 316 317 318 317 317 317 318 319 320 319 321 320 321 321 321 320 322 320 321 321 322 322 322 321 325 326 327 327 327 328 328 326
311 312 311 311 312 316 320 324 323 327 320 317 317 317 318 318 317 318 320 318 319 321 321 321 320 321 321 320 321 322 323 324 324 324 324 322 324 319 324 325 327 327 327 326 325
311 312 311 314 314 325 320 323 326 323 318 317 317 317 317 318 318 318 320 320 320 323 323 322 322 320 320 323 322 323 323 322 323 323 321 324 324 320 323 322 326 327 327 325 322
311 311 312 313 316 321 322 325 323 317 318 317 317 317 317 319 319 320 321 321 320 321 322 322 323 320 319 322 322 323 322 321 317 321 322 324 325 326 323 321 323 325 325 322 321
311 312 314 314 314 319 324 326 320 319 320 318 318 318 319 319 319 321 322 321 321 321 320 322 322 319 319 321 321 324 323 322 325 324 326 322 323 323 322 322 322 325 323 322 322
313 314 315 318 313 317 325 322 319 321 318 318 317 318 319 320 319 319 321 321 321 319 322 323 323 320 319 319 320 323 321 323 323 324 319 317 319 319 324 324 322 324 323 323 322
315 318 322 319 320 325 326 322 318 322 321 318 317 319 319 321 320 319 321 321 320 320 321 322 323 321 319 320 321 322 323 321 321 321 317 315 316 322 322 324 324 324 323 323 322
317 320 323 322 325 325 324 319 317 321 321 320 320 319 319 321 322 320 321 321 320 320 323 321 323 325 322 318 318 320 321 322 320 320 322 322 317 317 321 323 323 323 323 322 320
319 324 320 315 329 325 320 318 320 320 322 322 322 321 322 323 324 324 324 320 319 320 323 320 323 325 322 320 320 320 321 319 318 321 321 329 316 317 320 320 322 323 321 318 316
320 327 325 321 320 322 321 319 319 321 322 322 323 324 325 325 324 326 325 320 317 319 312 316 322 323 325 321 321 321 320 318 318 319 316 318 314 316 319 320 320 321 319 317 314
322 321 322 328 322 320 320 318 319 324 322 322 324 324 324 326 325 326 324 319 319 316 320 321 323 320 318 317 317 318 318 319 318 317 319 315 314 313 316 318 320 320 318 315 314
322 322 319 325 320 318 317 319 318 323 323 323 324 324 325 326 324 326 324 322 323 320 322 319 323 320 320 317 316 317 316 316 319 318 317 317 316 315 315 315 318 318 316 315 313
321 316 322 317 320 318 319 318 319 324 322 321 325 325 326 324 323 323 320 320 320 323 323 322 322 321 320 314 314 321 318 317 316 317 317 317 317 316 316 316 318 318 315 315 312

GFSSW_925_thetae_051.txt.gz
Theta_e
311 310 310 311 311 311 311 311 311 310 310 310 310 309 308 308 308 317 319 316 316 315 315 318 317 316 315 317 317 319 321 322 332 331 332 334 334 332 331 330 334 334 336 335 341
309 309 310 311 311 311 311 311 311 311 310 310 310 309 308 308 316 317 316 315 314 313 314 317 318 316 317 317 318 318 321 324 327 333 337 333 331 329 330 332 333 338 342 340 339
309 309 310 311 311 311 311 311 311 311 310 310 310 309 308 310 321 320 318 316 314 313 317 318 317 316 317 317 318 318 321 323 325 332 331 328 330 327 326 326 328 333 342 340 339
309 309 310 311 311 311 312 311 311 311 310 310 310 309 308 318 323 320 316 316 316 314 318 319 318 316 317 317 318 320 321 320 326 327 325 327 326 325 325 330 326 339 338 339 338
309 308 310 311 311 312 311 311 311 311 311 310 309 308 316 321 320 320 316 316 317 316 318 319 319 317 317 318 319 319 321 326 327 324 326 326 325 328 328 326 329 336 336 338 336
309 308 310 311 311 312 311 311 311 311 310 310 309 309 320 320 317 319 321 320 319 318 319 319 319 318 319 319 319 320 323 324 324 325 325 328 327 327 328 328 333 335 335 334 332
310 308 310 311 311 312 311 311 311 310 310 309 308 314 319 319 318 321 320 319 320 319 321 320 319 320 322 322 318 318 323 322 321 326 325 325 324 324 328 329 331 332 332 330 328
310 308 311 311 312 311 311 310 310 310 310 309 309 317 321 318 318 319 319 320 320 320 320 319 320 321 322 317 318 319 319 320 320 322 325 323 322 324 328 329 329 329 329 328 326
310 308 311 311 312 311 311 310 310 310 309 310 317 320 321 318 317 318 319 319 319 320 319 317 319 321 320 318 319 318 319 320 319 321 321 322 320 323 327 329 330 329 329 328 327
310 308 311 311 312 311 310 310 312 309 312 315 317 322 322 319 319 319 318 317 320 321 319 320 322 321 320 319 318 318 319 320 320 321 320 319 321 326 328 327 331 331 330 330 328
310 308 311 312 311 311 310 315 318 322 318 319 320 319 319 319 319 318 318 318 320 321 321 322 322 321 320 319 319 318 318 318 318 318 318 318 321 323 328 328 330 331 331 331 330
310 309 311 312 311 311 312 317 319 322 326 318 317 318 318 318 320 319 317 319 320 320 321 322 322 321 319 318 318 320 319 318 319 318 320 320 321 323 328 329 329 330 331 331 331
310 309 311 312 311 311 315 315 320 320 328 322 318 318 319 318 319 318 319 319 320 319 320 322 322 321 319 319 319 320 321 321 320 320 319 322 324 325 326 328 329 330 330 331 332
310 309 311 311 311 315 316 315 316 318 328 320 318 318 317 319 319 318 318 319 319 319 320 324 323 319 319 319 321 321 322 321 321 322 321 322 322 326 326 328 329 330 331 332 332
310 309 312 311 319 316 321 318 319 326 329 318 316 318 318 318 319 317 318 318 319 319 320 320 321 320 320 322 322 324 322 322 320 321 323 323 320 326 328 328 328 330 330 331 329
310 310 312 312 314 318 320 326 327 330 327 317 318 318 319 319 318 319 318 318 320 320 320 322 322 322 323 322 322 323 323 323 323 322 324 321 323 323 327 326 328 328 329 329 329
310 310 312 315 317 316 323 328 328 327 319 317 317 318 319 318 318 317 318 318 318 319 321 322 322 322 322 323 323 322 323 326 326 323 324 324 324 321 325 324 326 328 329 329 329
309 310 312 315 317 324 324 330 326 320 321 317 317 318 319 318 318 318 318 318 318 320 320 321 324 322 322 323 324 323 323 323 321 321 321 324 319 324 326 323 325 328 328 329 326
309 311 315 315 317 323 327 329 325 321 319 318 318 318 318 318 318 319 319 319 319 320 321 322 322 321 321 322 322 324 322 323 323 325 326 319 323 326 324 324 325 327 328 328 324
311 315 316 318 317 322 329 326 322 320 320 319 319 318 319 319 319 319 319 320 321 322 323 322 322 321 321 322 322 323 323 323 322 324 321 319 319 323 324 324 325 327 328 325 324
314 320 317 318 318 324 329 325 321 319 322 319 319 319 319 319 319 319 319 322 322 322 324 321 321 323 321 321 320 324 322 321 323 323 323 317 318 321 321 323 323 325 326 325 324
316 322 321 320 318 323 327 323 320 319 323 323 320 319 320 320 321 320 318 321 322 322 322 322 322 322 323 321 321 322 322 322 324 322 321 324 320 319 321 322 322 323 324 324 324
320 323 323 320 323 329 324 323 321 319 322 323 320 319 320 320 321 321 320 324 322 323 322 324 320 322 323 323 321 321 321 320 321 322 323 328 320 320 321 320 321 322 323 324 324
320 326 324 325 320 325 325 324 321 320 322 323 321 320 321 320 321 323 323 323 322 322 313 318 321 322 324 322 322 324 322 321 321 324 321 318 318 318 319 319 319 320 322 323 323
321 321 323 325 323 326 325 323 321 319 322 323 323 323 323 322 322 324 325 324 322 318 320 323 324 322 321 321 320 321 321 320 321 320 322 319 317 315 316 318 318 319 320 322 321
322 321 321 320 321 326 323 325 320 319 321 324 323 321 323 324 324 324 325 325 325 323 324 323 324 324 324 322 321 321 320 319 319 319 317 317 317 317 317 316 316 318 320 321 320
320 321 322 323 324 326 327 324 320 319 326 325 323 321 325 325 327 327 325 324 324 326 326 325 324 324 322 319 318 323 320 319 318 318 318 320 318 318 317 316 316 317 319 319 319

GFSSW_925_thetae_054.txt.gz
Theta_e
310 309 309 310 311 311 310 311 311 311 311 310 310 310 309 308 308 315 319 317 317 316 316 317 319 317 317 317 317 318 317 320 322 330 336 329 334 334 331 332 331 334 328 331 338
310 309 308 310 311 311 311 311 311 311 311 310 310 310 309 308 313 317 317 316 316 315 315 317 319 318 317 316 317 317 319 319 325 330 332 329 329 331 332 330 335 339 332 332 338
311 310 308 309 311 311 311 312 311 311 311 311 310 309 308 308 321 321 318 318 316 315 314 315 318 318 316 317 318 317 318 321 332 330 330 329 330 328 329 330 326 341 342 340 339
312 310 308 309 311 311 311 312 311 311 311 311 310 309 308 313 325 319 317 316 316 314 317 319 319 317 316 318 318 318 319 324 329 329 326 330 330 328 327 328 330 340 338 337 338
311 311 309 309 311 311 311 312 311 311 311 310 310 308 312 321 321 319 318 316 316 314 317 319 318 317 317 318 318 319 320 326 327 325 324 325 326 324 329 328 335 336 335 336 337
311 311 309 309 311 311 312 312 311 311 311 310 309 308 319 321 318 320 321 321 320 316 318 319 319 319 318 319 319 320 321 325 325 326 326 328 328 327 328 329 332 332 335 335 335
312 311 309 309 311 311 312 311 311 310 310 310 309 313 319 318 318 320 321 320 320 320 320 320 319 320 321 322 319 322 323 323 323 326 321 324 328 327 329 331 331 331 332 329 330
313 311 309 309 311 311 312 311 310 310 310 309 309 316 321 319 318 318 319 320 320 320 320 321 321 321 322 321 318 320 322 321 320 322 324 324 324 326 328 330 330 330 329 329 328
314 311 309 309 311 312 312 311 310 310 309 309 316 320 322 319 318 318 319 320 320 320 321 319 319 321 322 321 320 320 321 321 321 320 323 323 323 326 327 328 328 329 328 326 325
315 311 309 309 311 312 311 310 311 311 312 314 316 320 322 321 318 318 319 319 320 321 321 321 322 322 321 320 321 319 320 320 320 320 322 322 321 324 327 329 328 328 327 327 324
316 312 309 309 311 312 311 317 319 321 317 318 320 318 320 319 319 319 320 318 319 321 321 321 321 322 320 321 320 320 320 321 321 320 319 319 321 323 324 327 330 329 329 328 328
316 312 309 309 312 312 311 318 320 322 326 323 318 318 318 319 320 319 319 319 320 322 321 321 324 322 321 321 321 319 320 318 318 317 318 319 320 321 323 324 329 330 330 330 330
317 313 309 310 312 311 314 315 317 320 326 324 323 316 317 319 320 319 319 319 321 321 321 324 324 323 323 319 318 321 323 324 320 318 318 321 319 322 323 325 327 328 329 330 331
317 313 309 311 312 315 317 317 316 318 328 323 322 317 319 319 319 319 318 319 319 322 322 323 322 323 322 319 320 324 323 322 322 323 319 322 324 327 324 327 328 329 329 330 331
317 313 309 311 316 320 321 317 320 323 335 321 320 318 319 319 319 318 318 318 319 319 320 323 322 322 320 320 323 324 320 324 320 320 324 323 324 326 324 326 328 329 331 332 332
317 313 309 312 313 316 320 326 321 334 328 319 317 317 319 318 319 318 318 319 319 319 320 320 322 322 323 320 321 324 324 324 322 324 327 324 326 326 325 326 328 329 330 331 331
316 313 309 315 318 318 316 327 330 330 320 320 317 319 319 319 319 317 318 318 319 320 320 321 320 321 322 321 322 322 324 327 333 333 328 321 325 327 326 327 328 329 330 331 330
316 312 310 313 317 320 324 330 328 321 323 318 317 319 319 319 318 318 317 318 318 319 318 323 324 322 321 321 326 326 321 330 330 333 328 326 322 326 325 324 328 328 328 330 330
314 311 312 314 315 319 327 332 325 322 320 320 318 318 319 319 318 318 317 318 318 319 321 325 323 322 322 320 324 323 323 324 322 323 329 322 319 327 324 324 326 328 329 330 330
312 313 313 314 314 320 328 329 324 323 320 320 319 318 319 319 318 319 318 319 318 318 322 324 328 324 322 321 321 321 321 325 323 326 326 319 320 327 325 323 325 328 329 330 328
314 314 315 316 318 323 328 326 325 322 321 321 319 318 318 319 319 319 318 318 319 322 322 323 326 324 322 322 318 323 323 321 319 326 330 331 323 326 323 324 324 326 328 329 326
314 315 317 320 321 318 325 323 321 323 320 322 321 320 319 319 320 318 318 319 321 321 322 321 323 325 323 321 321 321 322 322 331 323 326 329 324 320 322 323 323 323 326 327 325
315 320 321 321 321 320 319 322 323 322 321 322 323 320 320 320 320 320 320 324 322 322 322 323 324 326 322 323 322 321 320 320 322 327 326 336 325 321 320 321 321 322 325 324 324
316 322 323 323 319 317 321 323 324 323 320 320 322 320 320 320 321 321 321 324 323 322 315 323 323 321 325 321 323 324 322 320 321 333 326 325 321 319 321 319 319 320 321 324 324
318 319 321 325 325 321 324 322 323 323 321 321 322 321 320 321 320 321 321 326 323 318 321 323 321 319 319 320 321 322 322 321 320 321 324 324 319 318 318 320 319 319 320 322 323
318 321 323 323 322 322 320 327 324 323 321 322 324 322 321 322 321 321 323 327 324 324 324 324 326 324 326 323 322 322 320 320 320 320 319 320 319 319 319 318 317 317 319 319 322
315 319 322 322 323 321 324 327 324 325 322 320 323 324 323 324 326 327 326 326 324 327 326 326 328 329 329 321 319 322 321 319 319 319 319 320 320 319 318 318 318 317 317 319 320

GFSSW_925_thetae_057.txt.gz
Theta_e
311 311 309 308 309 310 310 310 311 311 311 311 310 310 310 309 308 312 316 311 317 317 316 315 316 318 315 312 313 313 310 311 313 331 333 329 332 329 331 330 331 331 330 334 335
311 311 310 308 308 310 310 310 311 311 311 311 310 310 309 308 312 315 318 316 315 316 316 314 315 316 313 314 312 312 310 314 327 329 330 328 331 331 331 332 330 330 330 337 334
312 311 311 308 308 310 310 311 311 311 311 310 310 310 309 308 318 322 316 318 317 315 315 314 314 314 315 313 312 312 312 322 329 328 327 327 329 330 329 328 329 328 333 334 329
313 311 311 309 308 310 310 311 311 311 311 310 310 309 308 314 323 319 317 316 318 316 315 316 316 316 315 313 313 314 322 330 330 328 328 329 327 328 329 328 327 329 334 334 329
315 312 311 310 308 309 310 311 312 311 310 310 310 309 308 319 322 315 319 318 316 315 315 317 317 316 315 314 314 315 326 325 325 324 324 326 324 323 324 332 334 334 338 336 331
316 313 310 310 308 309 311 311 312 311 310 310 310 308 318 322 315 319 321 320 319 314 315 316 317 316 316 316 318 318 323 323 322 323 326 326 325 324 326 329 333 338 336 333 333
316 315 311 310 308 309 311 311 311 310 310 310 309 311 316 316 311 316 317 320 320 318 316 318 319 317 320 319 318 320 321 324 324 325 324 325 327 326 324 330 332 333 333 330 330
317 316 313 310 308 309 311 312 311 310 310 309 309 313 318 313 318 319 318 318 321 321 320 320 319 319 320 319 317 318 320 321 323 323 324 322 323 326 327 327 327 326 332 327 332
318 316 314 310 308 309 311 312 311 310 311 309 312 315 322 321 321 318 318 318 320 320 320 318 319 319 320 320 318 319 321 320 320 323 323 322 322 325 326 326 326 324 323 327 322
319 317 315 311 308 310 311 312 312 311 313 311 314 316 318 321 320 318 318 318 320 320 319 319 319 320 318 317 320 319 320 319 318 322 322 320 320 323 323 324 324 323 322 320 319
320 317 316 311 308 310 312 311 318 318 315 318 318 318 316 319 320 319 319 318 318 320 321 321 319 321 319 318 319 319 319 319 318 317 319 319 322 325 324 327 325 324 323 321 321
321 318 316 312 308 311 311 314 318 318 324 320 318 319 317 317 319 319 319 318 319 322 320 318 321 321 321 320 320 319 320 320 319 318 317 316 317 319 325 323 320 322 324 322 326
321 318 316 311 309 311 312 313 311 314 324 323 322 323 320 316 319 318 317 317 319 321 322 322 323 321 322 323 324 322 322 320 320 319 315 316 318 320 320 325 323 322 325 324 327
320 318 316 310 310 314 317 317 316 315 326 324 321 323 320 315 319 319 318 316 319 321 321 322 322 321 322 323 322 323 322 323 322 321 319 320 325 322 322 322 325 327 326 327 328
318 318 315 310 313 316 320 323 318 319 332 325 323 319 314 318 318 318 318 316 317 321 322 323 322 323 322 322 322 323 322 323 323 321 321 322 322 322 321 323 323 324 325 325 328
317 318 314 310 310 313 317 321 324 331 332 322 320 317 318 318 318 317 316 317 317 318 319 321 320 320 322 321 321 323 322 324 324 324 324 323 323 321 321 323 326 325 326 327 328
317 318 314 311 315 315 320 322 329 333 322 320 317 318 318 318 318 317 316 316 316 318 320 319 321 320 323 323 321 322 323 326 326 325 327 324 325 323 323 326 326 326 326 327 327
316 317 314 311 314 316 320 327 332 322 324 319 317 318 318 318 318 318 316 316 315 317 317 322 323 321 321 321 323 322 324 324 329 329 325 327 327 327 322 323 324 324 325 326 324
316 313 311 313 309 314 323 327 323 324 320 321 317 318 318 318 319 318 316 315 315 315 317 323 324 322 323 322 320 324 328 324 324 325 321 323 323 324 322 324 324 323 327 326 323
313 312 312 313 309 315 324 323 325 321 322 323 321 318 318 318 318 318 317 317 317 316 318 325 326 324 324 322 320 322 322 323 322 320 322 320 320 326 323 323 325 325 326 325 323
313 315 314 313 317 319 321 323 322 322 322 323 321 319 318 318 318 318 319 318 317 322 321 322 322 324 324 324 322 321 320 320 319 322 321 322 320 322 322 322 323 324 326 325 323
315 318 314 315 317 316 319 319 319 323 322 324 321 321 320 318 319 318 319 318 318 321 321 322 323 325 326 323 319 319 320 323 318 321 322 318 319 318 319 319 320 321 325 325 322
316 317 315 316 313 317 316 319 320 323 322 323 323 322 321 321 321 321 319 324 320 320 321 323 321 319 321 319 321 321 319 318 320 321 322 318 320 317 319 319 319 317 322 324 321
315 317 319 318 311 314 317 316 319 320 322 323 322 322 322 320 320 322 325 323 323 321 316 321 323 321 320 318 320 322 321 319 319 318 320 320 321 318 317 317 317 316 319 320 321
313 316 320 323 320 316 315 316 320 321 322 322 322 322 321 321 320 321 325 324 323 317 321 320 320 319 318 319 320 320 321 320 321 320 319 319 320 318 315 315 314 314 316 319 319
315 318 320 322 321 321 316 316 318 321 322 323 322 322 321 320 320 320 325 325 323 322 322 321 323 322 323 323 320 319 320 319 318 318 318 317 317 316 314 313 312 313 316 317 320
311 313 318 319 321 321 320 317 319 321 322 322 320 322 323 321 323 323 323 323 323 323 321 323 323 319 323 315 316 314 317 317 318 317 317 317 315 315 314 314 313 313 314 316 318

GFSSW_925_thetae_060.txt.gz
Theta_e
312 310 310 310 307 308 309 310 310 311 311 311 310 310 310 309 308 309 313 309 314 317 317 316 314 315 316 310 311 308 309 310 311 321 333 329 332 329 330 331 331 331 330 332 335
314 312 310 311 308 307 309 310 310 311 311 311 310 310 309 308 309 315 319 317 311 315 315 315 313 314 313 312 312 308 308 311 319 329 329 327 330 329 331 330 331 331 334 333 331
315 314 311 310 309 307 308 310 310 311 311 310 310 310 309 308 316 321 316 316 316 315 315 314 313 313 313 312 311 310 311 319 328 327 325 325 329 329 328 328 328 330 337 334 331
316 315 313 310 310 308 308 310 310 311 311 310 310 310 308 316 320 318 318 316 317 316 315 314 315 315 315 314 311 313 316 324 328 326 326 326 327 329 327 326 327 326 333 332 332
317 316 315 311 309 308 308 310 310 311 311 310 310 309 309 316 318 313 316 317 316 316 314 315 316 316 315 313 312 314 326 326 325 324 326 326 323 324 327 333 328 333 331 329 327
318 316 316 313 309 308 307 310 311 311 311 310 310 308 316 318 312 319 320 317 317 315 313 314 314 315 315 318 317 320 323 322 322 324 324 325 322 324 324 327 331 330 331 329 329
320 318 316 315 311 308 307 310 311 311 310 310 309 309 315 311 310 317 315 316 320 318 315 316 316 316 317 320 318 321 323 322 321 323 322 322 323 325 323 326 334 335 332 329 328
322 319 317 316 313 309 307 309 311 311 310 310 309 311 315 310 317 320 318 318 318 320 318 319 318 318 319 318 316 318 318 320 322 322 323 321 325 323 324 329 333 335 334 330 329
321 321 318 316 314 309 307 310 311 311 310 311 310 313 319 317 319 316 317 317 318 318 319 318 318 318 317 319 316 317 319 320 324 322 321 321 322 326 326 329 330 332 332 329 325
320 322 319 316 315 310 308 310 311 313 314 312 313 313 315 318 319 319 316 317 317 319 318 318 316 319 316 315 320 318 319 319 320 323 322 321 320 323 324 326 325 329 330 326 325
317 321 320 317 315 310 309 311 315 318 313 315 313 312 314 317 317 317 317 317 318 318 319 318 318 318 318 319 320 320 320 319 318 317 322 319 319 320 322 323 324 328 330 330 327
314 320 321 317 315 309 309 311 314 314 317 317 318 316 316 317 317 315 318 317 319 320 320 319 319 320 321 321 322 322 322 321 318 316 320 317 318 322 324 325 324 322 320 320 321
311 316 321 317 314 308 310 311 313 312 318 321 320 321 321 321 318 316 317 316 319 319 320 320 320 321 321 322 322 322 322 320 319 318 318 315 320 321 323 323 322 322 321 320 323
306 314 320 316 310 310 315 318 318 314 321 322 323 322 321 316 314 316 317 316 319 319 320 320 320 321 321 321 321 321 320 321 320 317 315 317 319 320 319 326 324 323 323 322 325
306 313 319 316 311 313 319 316 318 318 314 320 321 321 318 314 317 317 317 316 318 320 320 320 320 321 321 321 320 322 320 321 321 320 320 320 318 316 320 322 324 324 324 324 326
307 310 317 314 311 308 311 316 321 326 321 325 322 318 314 314 317 316 316 315 315 319 319 318 319 319 319 320 320 320 321 322 322 321 323 322 320 318 319 321 322 323 324 325 326
311 311 316 315 311 313 316 320 325 327 322 322 319 315 316 316 317 317 315 315 314 317 318 319 320 319 321 321 320 320 320 322 322 322 324 322 322 320 319 319 319 322 323 324 326
306 311 316 316 312 314 319 324 326 322 323 321 316 316 317 316 316 316 315 314 314 316 316 319 320 320 320 320 320 323 320 321 324 324 321 324 324 323 321 319 322 322 324 326 329
304 309 313 317 315 310 320 325 320 324 320 319 316 317 317 317 317 316 315 314 314 313 316 320 323 322 321 321 319 321 323 323 325 322 321 319 320 322 322 321 322 322 325 325 325
308 312 313 315 315 311 323 319 321 321 321 322 320 317 317 317 316 316 316 315 314 314 314 320 324 322 322 321 319 319 320 324 323 319 319 318 319 323 323 326 323 322 325 324 321
308 313 314 314 311 314 320 319 319 319 321 324 323 319 317 317 316 316 317 316 315 317 317 320 319 319 323 322 320 319 319 320 319 318 319 320 318 317 321 323 323 322 325 324 320
308 315 314 313 315 311 318 318 315 319 320 322 323 322 318 316 317 317 317 317 317 319 320 320 320 322 322 321 321 318 319 319 318 318 319 316 317 315 318 319 322 322 324 324 321
311 314 313 315 316 312 314 318 317 317 320 322 323 322 319 319 318 317 317 321 319 319 319 320 320 320 322 319 318 321 317 318 319 316 317 316 317 315 316 317 317 320 322 323 322
312 315 316 315 313 311 313 316 319 316 317 319 321 322 321 321 319 318 322 322 321 319 317 318 320 318 322 319 317 320 320 317 316 315 317 318 318 318 315 316 316 315 318 322 322
312 315 315 318 316 313 312 314 317 318 316 320 321 321 322 321 319 319 324 322 322 316 319 318 319 319 317 318 320 320 320 320 319 318 318 317 318 317 315 314 313 313 316 319 319
313 316 315 316 315 314 312 313 315 315 316 316 319 322 321 319 317 318 323 322 320 320 319 319 318 318 320 317 317 318 317 317 318 317 317 317 316 315 314 312 313 313 313 317 317
305 309 314 314 316 316 314 313 314 314 316 315 320 322 321 321 317 316 320 321 320 319 319 320 320 316 319 313 316 316 316 316 317 316 316 316 314 313 312 311 311 313 312 317 317

GFSSW_925_thetae_066.txt.gz
Theta_e
317 315 315 314 312 309 310 308 307 308 309 310 311 310 309 309 308 310 312 312 310 309 312 314 313 314 313 309 307 304 308 309 311 311 314 329 332 329 328 329 331 333 331 335 336
319 317 316 315 314 312 309 309 307 308 309 310 311 309 309 308 310 313 317 315 314 315 315 313 311 311 310 311 308 307 306 309 309 310 327 328 329 328 329 328 334 333 335 335 335
322 319 318 316 315 314 311 308 307 307 309 310 311 309 309 308 311 316 316 316 315 314 314 313 313 312 312 311 310 306 310 308 311 325 324 325 327 327 328 328 330 336 336 335 333
322 323 319 318 316 315 314 310 308 307 308 310 311 309 308 312 315 316 314 316 316 313 314 313 312 314 315 315 310 311 309 310 322 323 323 324 326 328 324 329 328 332 332 331 332
320 322 322 320 318 316 315 313 309 307 308 310 311 309 309 309 308 309 315 317 315 315 314 313 314 314 315 314 312 309 317 321 324 323 323 324 324 325 327 330 331 330 330 329 330
318 320 322 322 320 318 316 315 312 308 307 309 311 309 312 308 309 314 317 315 316 315 312 312 313 313 315 314 317 319 320 322 323 324 324 322 323 322 329 332 331 331 329 329 330
314 318 320 320 321 320 317 315 314 310 307 308 310 309 313 308 309 314 316 315 315 315 312 312 313 315 315 317 317 320 323 321 323 322 322 320 323 327 327 330 331 332 331 329 328
309 314 318 318 319 320 319 316 314 311 307 308 310 310 309 309 310 309 312 315 317 316 317 317 315 315 316 316 314 319 317 322 320 320 320 320 324 326 325 330 326 328 331 329 327
307 309 316 317 318 319 320 317 315 309 311 311 310 311 312 311 311 315 315 317 316 316 316 316 315 315 315 314 313 312 316 319 321 319 319 319 323 323 323 331 331 329 329 330 327
309 306 310 315 317 319 320 317 310 312 312 311 312 312 308 314 315 317 317 318 316 316 316 316 313 314 312 312 317 318 317 318 318 317 320 320 320 324 323 331 332 330 329 329 328
305 308 306 312 315 318 319 315 307 313 313 314 313 309 307 314 318 315 315 315 316 316 317 316 315 316 315 314 316 318 319 318 316 315 318 318 319 325 324 327 331 331 329 328 328
307 305 305 307 315 317 317 308 309 311 314 312 312 312 312 315 317 316 315 315 316 315 317 316 317 315 316 318 319 320 320 319 317 316 317 317 318 316 325 329 327 331 330 328 326
307 305 306 306 314 316 316 312 310 312 315 313 314 314 314 315 317 317 313 314 316 316 317 317 317 316 319 320 320 319 320 319 319 316 316 316 317 318 320 325 323 327 329 329 327
306 305 308 306 315 315 311 311 312 313 314 314 318 318 318 317 318 317 314 316 317 316 316 317 316 318 319 320 318 320 317 318 319 315 316 314 317 316 319 325 323 324 327 328 327
305 305 308 307 311 311 314 313 315 314 308 311 320 317 317 314 313 313 315 315 316 317 317 316 319 319 319 318 318 318 318 319 319 317 317 317 315 314 320 325 325 322 325 325 326
305 305 308 308 312 315 313 317 316 324 318 313 319 319 318 313 314 313 314 313 314 317 318 315 316 317 318 318 317 318 320 316 315 317 320 318 317 316 317 323 323 323 321 323 320
303 305 308 308 313 314 316 314 324 324 315 318 321 317 315 314 313 314 314 313 314 316 317 317 318 317 318 319 317 317 316 318 318 319 320 318 319 318 317 315 318 322 322 319 318
303 305 307 307 312 312 315 321 323 318 318 319 317 316 315 312 313 314 312 314 311 313 312 316 315 317 317 317 317 319 316 317 321 320 318 317 321 318 317 317 315 313 319 317 317
302 304 306 308 310 313 316 320 318 317 318 315 314 315 314 314 312 314 312 312 311 311 314 316 317 318 320 319 317 320 319 316 318 316 320 317 315 312 315 319 321 323 318 317 319
303 305 306 308 311 311 317 318 320 316 320 321 319 314 314 314 315 313 312 312 312 311 312 314 317 320 320 320 317 317 317 319 317 322 319 314 315 314 315 316 320 324 321 320 320
302 306 305 306 311 314 318 315 316 317 318 320 323 323 314 314 314 313 313 314 312 312 312 314 313 315 320 320 318 319 318 316 316 314 318 318 315 312 316 317 318 319 319 321 322
303 306 305 306 312 314 317 313 313 316 316 316 318 321 322 314 314 314 315 314 312 312 313 315 313 313 317 317 316 316 317 316 317 317 315 314 315 312 311 312 316 318 317 320 321
304 306 309 308 311 313 315 315 314 316 315 316 318 319 320 318 315 314 314 314 312 313 315 316 314 314 314 315 317 320 317 316 314 312 317 315 317 312 311 311 314 315 316 318 319
304 306 310 309 309 310 315 316 314 315 315 315 317 318 320 320 316 315 315 317 315 314 315 315 315 314 315 315 315 319 317 316 316 315 316 314 315 313 312 313 312 312 312 316 319
304 307 310 311 309 311 312 313 314 314 315 314 316 318 320 321 318 317 320 321 318 317 315 315 316 315 315 315 315 315 316 314 315 314 316 316 313 313 313 312 311 310 309 315 319
301 307 308 309 310 310 313 313 314 314 315 315 316 315 317 319 318 318 321 319 319 317 316 313 316 315 317 316 316 319 317 315 315 315 314 314 314 311 311 308 310 308 308 310 316
298 299 305 310 311 310 311 312 313 313 313 314 314 314 317 315 314 315 316 316 316 317 315 315 315 313 317 313 315 315 314 315 315 314 314 315 313 311 312 311 311 309 309 313 316

GFSSW_925_thetae_072.txt.gz
Theta_e
322 322 322 322 320 318 317 315 314 313 309 307 307 308 310 310 309 315 318 316 312 312 314 315 317 316 314 314 315 316 318 316 317 321 319 326 331 333 331 334 334 336 336 338 337
319 319 321 321 322 321 319 318 316 314 313 309 307 307 310 310 313 315 316 313 308 311 316 315 316 318 320 317 316 317 318 317 317 317 318 325 332 332 333 334 335 336 336 338 337
316 317 318 318 320 321 321 320 318 316 315 313 308 307 309 309 316 318 316 314 310 313 315 315 314 317 319 319 319 319 319 318 318 318 319 325 330 330 330 330 331 335 338 337 337
312 313 314 316 318 319 320 320 321 319 317 315 313 307 308 315 313 318 313 315 314 316 315 315 315 317 319 319 319 319 319 318 318 324 327 328 329 329 330 332 332 332 335 336 335
307 307 310 313 316 318 319 317 319 320 319 317 314 311 311 314 314 310 311 317 315 315 316 317 318 320 320 320 320 320 320 325 322 326 328 326 327 329 330 333 332 332 335 334 332
308 307 306 309 313 315 318 317 317 318 319 319 316 311 313 314 310 314 316 316 316 316 316 317 319 319 320 321 321 323 326 328 328 328 327 326 327 328 332 331 332 333 332 332 332
307 307 306 308 309 314 315 315 316 317 319 319 316 311 313 313 310 314 315 316 317 317 318 316 316 320 321 321 323 325 327 327 328 327 326 326 328 329 331 331 332 332 330 329 330
306 307 307 306 307 309 314 314 314 317 317 317 311 314 313 312 311 310 312 317 316 316 316 318 316 320 321 320 323 325 325 324 325 325 325 326 325 329 330 332 331 331 332 330 330
305 306 307 306 307 306 311 313 314 316 315 311 314 314 314 311 312 312 312 315 317 317 318 316 319 321 321 321 324 323 322 321 323 323 324 325 324 329 329 327 327 329 329 330 330
305 305 306 307 305 305 308 311 315 313 312 313 314 316 314 314 314 316 315 313 318 319 319 320 321 322 321 321 322 321 321 321 322 322 323 323 323 327 331 328 327 327 328 331 330
304 305 306 306 305 305 311 316 315 316 315 317 316 315 314 314 317 317 318 318 318 320 322 321 323 323 320 320 320 320 321 321 321 321 322 322 322 325 331 331 329 328 328 331 329
304 304 304 306 305 306 311 315 317 313 316 313 314 315 315 315 318 320 316 318 319 321 321 322 323 322 320 320 321 321 321 322 321 321 321 323 323 323 330 332 331 330 329 328 331
304 303 304 305 306 307 312 315 313 312 318 317 317 316 315 314 315 318 318 318 319 320 321 321 321 320 321 321 322 321 322 322 321 322 322 322 323 323 325 329 331 331 330 330 328
302 303 303 304 305 310 314 314 316 313 318 314 315 317 315 314 316 315 318 317 318 320 319 320 320 320 321 321 322 323 322 322 322 323 323 321 321 321 323 326 329 331 332 332 331
300 301 302 304 309 313 314 316 313 316 309 313 317 316 316 314 315 316 317 318 319 319 320 320 320 321 321 322 322 322 321 323 323 324 323 323 321 322 322 323 324 328 331 333 333
298 299 302 304 307 310 313 315 317 324 312 313 319 320 318 316 316 317 317 318 319 319 320 320 320 321 321 321 321 321 323 324 324 324 325 323 322 321 321 322 323 324 326 331 332
297 297 302 304 308 309 311 316 322 320 313 312 321 320 319 316 316 317 318 319 320 321 321 320 320 320 321 322 321 322 324 326 327 326 325 323 323 322 321 322 323 323 323 326 329
299 297 301 304 306 309 313 320 321 310 315 316 316 320 320 316 316 318 318 319 319 319 319 321 321 320 320 321 321 323 324 325 323 324 323 321 321 321 322 322 321 324 325 324 326
299 299 301 303 304 307 315 319 311 311 314 314 314 322 320 315 316 318 319 319 319 320 319 320 319 319 320 321 321 324 324 323 325 324 325 321 321 319 320 320 323 325 326 328 325
300 301 302 301 303 307 311 315 311 312 314 319 313 318 324 316 316 317 318 318 319 319 319 319 319 319 322 321 321 323 323 324 324 324 323 321 321 320 319 320 323 321 321 327 325
300 303 302 302 302 308 311 311 311 313 315 318 322 318 319 319 315 317 317 316 318 318 319 319 320 323 323 323 322 324 324 323 323 323 324 323 322 320 319 320 321 322 324 324 328
301 303 302 302 304 307 310 309 310 311 317 319 320 323 324 317 318 315 317 317 317 318 319 319 320 321 321 321 321 322 322 324 323 323 324 324 322 320 320 321 322 322 322 324 325
302 303 303 303 306 307 309 310 310 313 313 318 319 319 321 324 318 318 317 317 316 318 319 319 320 321 320 320 321 322 322 323 323 323 322 328 323 321 321 321 322 322 321 323 324
302 303 304 304 306 307 308 310 311 310 313 315 317 318 320 320 321 319 318 317 316 318 319 319 320 320 321 318 318 320 319 320 321 324 321 321 321 320 321 322 321 321 321 322 321
303 305 304 306 305 307 308 308 309 311 312 314 317 318 319 320 321 320 317 320 316 316 317 320 320 320 319 317 317 318 318 319 320 320 320 321 320 319 321 321 321 321 319 319 319
302 306 306 307 308 307 308 309 309 310 312 312 315 317 319 320 318 320 319 318 322 320 320 320 320 320 320 319 319 319 319 319 320 320 321 322 320 319 320 320 321 320 318 319 318
302 302 306 307 308 308 307 308 309 310 312 311 313 313 317 318 319 317 317 318 319 321 322 322 321 321 321 320 320 323 321 320 321 321 321 321 320 319 320 320 320 320 318 319 320

GFSSW_925_thetae_075.txt.gz
Theta_e
317 318 319 320 321 321 322 321 319 318 317 315 313 310 306 307 309 317 321 318 314 313 316 318 317 318 317 317 316 318 319 318 318 319 323 323 327 333 332 332 332 335 337 340 339
314 315 316 316 317 318 320 321 321 321 319 318 315 313 308 307 315 318 317 315 309 312 316 317 318 319 320 318 318 319 321 319 319 319 319 320 326 329 330 331 331 335 336 339 339
310 311 313 313 314 316 319 319 319 319 320 320 319 315 312 309 320 320 317 315 309 312 318 317 316 319 320 320 320 320 320 320 319 321 321 322 326 329 329 328 332 331 336 339 339
308 308 307 308 311 314 316 317 318 317 318 319 320 318 313 316 319 321 316 316 312 315 318 316 317 318 320 321 320 319 319 320 321 321 325 326 327 327 327 330 331 331 334 338 338
307 308 308 305 307 310 313 315 317 317 316 318 319 319 314 317 318 315 314 313 315 317 318 318 318 319 321 321 321 320 319 320 324 323 327 326 326 327 327 331 334 333 335 337 335
306 307 307 307 306 307 309 314 316 315 315 317 318 318 317 317 314 315 318 321 319 318 318 319 321 321 321 321 321 322 322 324 325 326 327 326 326 326 333 332 333 334 334 333 331
305 306 306 307 307 306 307 309 313 311 313 316 316 315 317 318 314 314 316 319 319 318 319 319 319 320 322 321 322 325 324 324 325 325 326 326 326 324 330 330 333 333 332 331 331
305 305 305 306 307 306 306 305 309 311 313 315 315 315 318 314 314 313 314 319 319 319 319 320 320 321 321 322 322 325 325 325 328 326 325 324 330 326 330 330 330 331 331 331 330
304 305 305 305 306 307 305 304 305 310 315 314 315 318 316 313 314 313 313 317 320 320 320 320 321 322 323 321 322 324 324 325 325 322 324 324 324 328 329 329 329 330 327 329 330
304 304 305 305 306 306 305 303 308 314 315 315 315 317 315 315 315 314 313 315 320 321 322 321 322 323 323 322 323 324 326 322 320 323 323 322 323 325 329 328 328 329 328 322 324
303 304 304 304 305 306 306 311 316 320 317 316 317 315 315 314 316 317 315 316 320 322 323 322 323 323 323 323 321 322 322 322 322 322 322 322 323 323 329 330 329 327 330 326 324
303 304 304 304 305 306 307 312 313 316 315 313 314 315 316 317 319 318 317 318 320 322 322 323 323 322 323 321 320 321 322 322 323 322 322 323 323 323 327 329 330 330 328 330 328
302 302 304 304 304 305 308 311 314 316 318 314 315 315 313 314 317 319 318 319 320 321 321 323 322 322 322 321 321 322 323 323 324 323 323 323 323 323 325 329 330 330 328 329 329
300 300 301 303 304 308 311 313 315 318 317 312 318 318 316 314 316 316 318 318 319 320 321 322 321 321 321 322 322 323 323 322 323 323 326 324 324 325 323 326 329 330 331 329 329
299 299 299 302 305 311 316 316 318 319 310 315 316 316 316 316 314 315 316 318 318 320 320 321 321 322 322 322 322 323 323 323 324 325 324 323 320 322 321 322 325 328 331 331 329
301 298 300 301 303 305 309 316 319 318 311 314 319 318 319 316 315 316 316 319 318 319 320 320 320 321 322 322 322 323 323 324 325 325 327 323 323 322 321 320 322 323 328 330 331
301 300 298 301 305 307 308 312 317 311 311 313 318 320 320 318 315 317 316 320 319 320 321 320 321 321 321 323 323 323 325 328 328 328 328 325 323 321 323 321 322 322 324 327 330
301 300 300 300 303 305 308 315 312 309 311 317 317 322 321 318 317 317 318 320 319 319 321 321 322 321 322 323 324 323 324 327 331 328 326 325 322 322 322 321 321 321 323 324 326
302 302 301 301 303 304 309 317 313 310 311 311 317 320 323 321 317 317 318 318 319 319 321 321 321 321 321 321 322 324 325 324 327 325 326 324 322 322 321 320 320 322 324 325 327
303 302 302 302 304 305 308 312 311 310 309 312 314 316 320 322 317 317 318 318 319 319 320 320 321 320 321 321 321 323 324 325 325 326 330 323 323 321 321 320 322 322 322 326 327
302 304 303 302 304 307 308 311 312 311 310 312 315 316 316 323 318 317 318 318 318 319 320 320 321 321 321 322 322 323 324 324 324 325 327 327 323 323 320 320 321 321 321 322 324
302 305 303 303 306 306 307 309 310 311 312 312 314 318 316 317 321 317 317 318 318 319 320 320 321 322 321 321 321 322 323 323 325 324 324 324 325 322 321 321 321 321 321 322 323
302 303 303 304 306 306 306 308 309 310 311 314 317 318 321 319 321 320 318 318 317 319 320 320 320 322 322 321 322 322 323 323 324 324 324 333 327 321 321 321 321 322 321 321 322
301 304 306 306 305 307 306 307 308 308 311 311 315 315 317 321 321 320 320 318 319 318 320 322 320 321 324 321 321 321 320 321 322 329 326 323 321 320 320 321 322 322 322 321 320
302 306 306 306 306 308 307 306 308 309 309 311 312 315 317 317 318 318 321 319 317 316 319 321 321 320 319 319 319 319 319 319 320 321 324 322 321 319 319 320 321 321 322 322 321
302 305 305 306 306 307 307 307 307 308 308 310 314 313 315 315 319 315 317 320 320 320 319 321 323 321 320 319 319 318 318 318 318 319 319 319 319 320 321 320 319 320 321 321 321
301 303 306 306 307 308 309 308 307 307 309 310 311 313 315 315 319 319 318 318 318 320 322 322 324 322 324 320 320 325 319 319 319 319 320 321 321 320 320 319 320 319 319 321 321

GFSSW_925_thetae_078.txt.gz
Theta_e
312 314 315 315 316 316 318 317 319 320 320 320 320 320 318 315 310 315 319 320 320 314 315 319 319 319 318 319 318 317 317 319 321 320 320 323 323 323 329 330 328 330 329 334 340
309 309 310 311 313 313 314 316 318 318 318 317 318 319 320 319 315 317 318 317 315 312 316 319 319 319 319 319 318 318 319 321 321 319 319 320 320 323 327 328 328 325 334 339 339
308 308 308 307 307 309 312 314 316 316 318 317 316 318 319 318 319 322 317 317 314 310 315 318 318 318 319 320 320 319 319 320 320 320 320 321 326 327 327 331 326 327 334 338 338
307 307 308 308 307 305 308 311 313 314 316 316 314 317 317 319 321 322 318 316 314 311 315 319 318 318 319 320 321 320 319 319 320 320 321 322 326 326 327 333 331 333 337 338 336
306 306 307 307 307 307 306 307 309 313 314 313 313 316 317 319 319 318 316 316 315 313 318 319 318 318 318 320 321 320 321 319 320 322 321 324 323 326 330 332 332 333 335 336 333
305 305 305 306 306 307 306 305 306 309 311 311 312 315 318 320 318 317 317 320 317 317 318 318 318 320 321 321 321 321 321 322 321 323 325 325 326 327 324 328 332 334 334 333 330
305 305 305 305 305 306 306 306 304 303 306 310 312 316 317 316 316 316 316 318 320 320 319 319 319 320 320 322 322 322 322 323 326 325 326 326 326 326 324 323 330 332 332 332 329
305 305 305 305 305 305 306 306 304 299 303 307 313 316 316 313 315 317 316 316 319 320 319 319 320 320 321 321 322 322 322 326 328 325 324 325 326 326 323 327 331 330 331 332 330
303 304 304 304 305 305 306 306 302 299 307 313 315 317 316 314 315 315 315 316 319 320 320 319 320 321 322 323 323 321 324 326 325 326 325 324 327 327 324 327 331 326 330 331 328
302 303 303 304 305 304 305 305 299 308 315 316 315 315 315 313 316 316 314 314 318 321 321 320 320 321 322 323 324 324 327 326 325 325 324 324 321 330 331 327 330 325 328 328 327
301 303 303 304 304 304 305 307 311 318 319 320 318 314 316 316 314 316 315 314 316 321 322 321 322 322 322 323 323 322 322 322 323 323 323 324 320 323 327 327 329 325 323 325 326
301 301 303 303 304 304 304 308 311 316 316 312 311 312 313 315 318 318 317 314 317 320 321 322 323 322 322 323 322 321 321 322 322 322 324 322 321 323 327 327 329 330 324 324 328
302 300 301 301 303 304 306 308 311 312 317 313 312 312 311 313 314 318 318 315 317 319 321 323 322 323 321 323 322 321 322 323 324 323 324 323 322 323 325 326 330 328 330 326 327
302 301 300 299 302 307 312 312 313 316 317 309 312 315 313 313 313 313 318 317 317 318 319 321 321 322 323 323 322 323 322 323 322 323 324 325 326 324 324 326 328 331 329 329 328
302 302 300 299 303 307 310 309 313 319 310 311 315 317 318 315 315 315 314 319 319 319 320 321 321 321 322 322 322 323 323 324 323 324 325 326 327 322 324 325 327 330 331 329 329
302 301 301 301 301 304 305 305 311 320 311 312 318 318 318 317 315 316 314 317 318 319 320 320 320 321 321 322 322 322 323 324 324 325 328 325 325 325 324 324 323 327 330 330 329
302 302 302 301 303 305 307 310 317 312 308 309 317 318 317 318 316 317 316 317 320 319 320 319 319 320 320 321 322 322 324 328 332 332 331 325 325 326 325 324 322 323 326 330 330
300 302 303 302 301 302 306 313 315 307 308 314 316 318 320 319 319 317 317 316 319 319 319 321 321 320 321 322 324 323 324 330 332 335 333 329 326 322 323 322 322 321 322 327 329
301 303 303 303 302 303 307 310 312 309 308 309 314 317 321 320 319 318 318 318 318 318 319 321 321 320 321 321 322 324 325 325 328 327 334 330 326 326 322 321 320 320 322 324 325
302 303 303 303 303 304 307 308 309 311 309 310 311 317 321 323 322 319 318 318 317 319 319 321 324 321 321 321 322 323 324 328 326 331 330 323 324 327 324 322 321 322 323 326 328
303 304 303 303 303 306 308 308 307 308 310 310 310 312 314 315 322 319 318 317 318 318 319 321 323 323 321 322 322 322 323 327 326 326 330 332 326 326 324 322 322 321 323 323 323
302 303 302 304 306 306 308 308 307 307 308 311 312 313 313 316 322 322 319 318 318 319 320 320 322 324 322 322 321 321 323 325 329 326 329 332 329 324 323 322 322 321 322 322 323
303 303 303 304 306 306 305 306 307 306 307 309 312 313 314 318 320 321 320 318 317 318 320 321 321 324 323 322 322 322 322 323 324 325 327 332 327 324 322 321 322 323 322 322 323
300 304 306 305 306 306 306 306 306 306 307 308 312 313 313 322 323 320 321 319 322 320 319 322 323 323 326 324 323 322 321 321 326 329 328 328 325 322 322 322 322 322 324 323 322
297 305 306 307 307 307 307 305 306 306 307 308 311 312 312 319 322 320 321 320 320 321 319 322 323 324 321 320 320 321 322 321 321 321 323 324 322 322 321 320 321 323 324 323 322
299 304 305 306 306 307 308 308 307 306 305 307 310 311 313 318 317 316 318 321 321 321 324 321 324 323 324 320 321 321 320 320 320 320 319 321 321 320 320 320 322 321 320 320 322
300 303 306 307 307 308 308 307 307 307 307 307 308 311 313 315 317 319 319 320 321 321 319 324 324 324 326 322 320 321 321 320 319 319 320 320 321 321 321 320 321 321 321 320 320

GFSSW_925_thetae_081.txt.gz
Theta_e
308 308 309 309 308 309 312 312 312 316 316 317 317 316 311 317 316 317 315 317 321 321 314 316 316 317 316 315 315 314 311 311 313 318 317 322 324 322 327 329 328 328 325 327 335
308 308 309 308 307 306 306 309 311 314 314 314 316 314 310 316 315 318 318 317 318 316 313 316 317 317 314 315 314 312 310 313 316 317 318 319 325 322 328 329 327 327 325 325 335
306 306 307 308 308 307 306 305 307 310 311 313 314 312 309 313 320 321 319 318 316 314 311 315 316 317 315 314 315 314 313 315 316 317 318 319 323 328 329 333 330 328 332 336 335
306 306 306 306 306 307 307 306 305 305 307 310 312 311 311 316 316 320 317 316 315 312 311 315 317 315 315 314 315 317 316 316 316 316 320 319 324 328 330 332 331 336 334 334 335
306 305 305 305 305 305 305 306 306 304 304 305 308 311 314 317 318 314 317 316 315 312 314 316 317 316 315 315 316 319 318 319 320 322 322 321 324 327 323 327 331 334 333 333 332
304 305 305 305 305 305 305 305 305 304 304 303 305 310 317 316 310 315 317 315 316 314 315 315 317 316 316 318 317 317 318 317 320 322 323 325 325 324 323 325 332 335 332 331 330
303 304 304 305 305 304 304 305 305 304 303 304 303 312 316 314 306 309 314 314 317 317 317 318 317 316 318 318 319 319 319 318 321 322 323 323 325 325 323 324 331 333 331 329 328
301 302 303 304 304 304 304 304 304 301 301 302 306 314 316 307 307 312 315 315 316 319 320 319 318 319 319 319 319 319 318 319 323 323 323 322 324 326 321 327 329 330 331 329 326
301 301 302 303 303 304 304 304 303 300 301 306 312 314 318 314 314 314 313 314 316 316 319 320 318 319 319 320 319 319 319 320 325 324 324 323 326 325 323 325 327 329 329 327 326
303 301 301 303 303 304 304 303 300 303 307 314 316 316 317 316 314 315 315 314 315 317 319 319 317 318 317 318 322 321 323 326 326 324 324 324 324 325 323 327 326 329 326 326 325
303 303 301 300 302 302 303 303 308 313 315 319 317 315 313 316 316 315 315 314 314 313 319 319 318 319 317 318 320 321 322 323 323 323 323 322 321 328 326 327 326 325 327 325 324
303 303 302 300 300 300 301 304 308 310 310 315 317 317 317 318 316 314 316 313 313 313 317 320 320 319 320 319 321 322 321 319 319 322 321 320 319 321 326 325 323 322 322 323 325
303 302 302 301 298 300 304 306 308 309 312 313 313 312 311 309 308 310 313 315 313 313 315 321 321 321 321 321 322 321 320 320 320 321 320 323 321 321 324 326 322 321 324 325 325
301 302 302 302 300 302 306 305 309 309 317 311 311 311 311 311 311 309 312 315 313 313 314 317 320 321 322 322 321 321 320 321 324 321 321 322 322 321 324 328 326 322 323 326 325
300 302 302 301 300 300 304 305 306 316 314 309 309 313 312 310 312 312 311 313 316 314 315 317 318 320 322 321 321 322 322 324 324 322 321 323 325 321 321 325 329 327 323 324 325
300 300 302 302 301 301 303 306 310 318 316 310 317 317 316 310 313 313 311 311 315 315 315 316 317 318 319 320 320 321 322 322 323 322 324 323 326 323 321 325 325 328 327 324 326
300 300 302 302 302 302 302 307 316 316 307 306 313 317 317 317 313 315 314 311 312 317 318 318 318 317 319 320 319 320 320 324 328 328 327 329 330 324 322 321 323 329 327 326 324
300 300 300 302 301 302 304 310 316 311 309 308 308 313 317 316 317 317 315 314 312 316 317 318 319 317 318 319 320 319 321 326 330 329 334 331 331 324 322 321 318 319 326 326 326
300 301 302 302 302 302 304 308 307 309 308 308 307 307 308 318 318 316 315 316 314 314 318 317 318 318 318 320 320 322 323 321 329 331 333 330 326 324 323 320 318 317 317 325 326
302 302 302 301 302 303 306 304 305 306 307 308 310 309 310 316 320 318 317 316 316 314 317 319 321 319 319 319 320 320 322 326 324 332 333 329 327 326 321 321 320 319 321 322 321
302 304 303 301 303 304 303 304 305 304 305 307 308 310 311 312 314 323 323 317 315 316 316 317 319 320 320 320 321 321 321 325 325 325 324 324 324 322 321 321 320 319 318 320 323
302 302 303 303 305 304 304 303 304 305 305 306 306 307 310 312 313 313 321 319 316 316 317 317 321 320 319 319 320 320 321 322 327 327 327 324 323 322 320 318 318 317 318 317 317
301 302 302 304 305 305 304 304 304 305 305 306 307 307 308 310 314 315 320 320 316 317 318 317 320 322 321 319 320 320 320 321 321 322 326 325 326 321 321 320 318 319 318 318 318
297 302 304 304 304 304 305 305 305 305 305 306 307 306 307 308 312 315 318 321 317 319 318 317 319 319 321 321 321 321 320 320 321 322 323 323 324 322 320 319 318 318 318 319 319
297 301 304 305 306 304 305 305 305 306 305 305 305 306 307 309 313 315 320 317 319 319 321 319 321 319 320 319 320 322 321 320 320 321 325 324 324 322 319 318 318 318 319 320 319
297 302 303 303 305 306 305 307 307 306 305 305 306 305 307 310 311 315 317 316 319 320 321 319 320 320 320 320 320 321 320 319 320 320 318 318 319 317 317 315 317 317 318 318 318
300 300 304 305 305 306 306 304 307 306 306 305 305 305 305 307 310 314 318 318 318 321 318 320 320 323 322 321 321 320 319 319 320 320 318 318 317 317 317 319 318 319 317 318 318

GFSSW_925_thetae_084.txt.gz
Theta_e
308 308 308 308 308 308 306 305 305 306 309 311 311 312 309 307 307 309 315 314 318 318 317 316 316 313 313 313 314 310 311 311 311 312 315 317 322 325 325 327 328 329 325 326 333
307 307 307 307 306 306 307 306 306 305 305 306 308 310 306 308 312 315 316 316 318 320 314 314 316 315 314 314 314 312 309 312 312 312 316 318 324 323 329 329 328 329 327 323 329
306 306 306 306 306 305 305 305 305 305 305 304 304 306 305 309 317 316 318 318 317 316 313 314 314 315 314 313 312 312 313 315 314 313 315 318 328 328 328 333 332 331 332 329 335
305 305 306 305 305 305 305 305 304 304 305 305 304 304 306 314 305 319 317 316 315 312 310 313 315 316 314 314 313 315 313 314 314 318 321 318 325 330 329 331 335 335 334 335 333
304 304 304 304 305 305 305 304 304 304 304 304 305 304 309 316 318 307 314 311 314 310 312 313 315 316 315 313 313 316 316 316 319 321 322 322 324 325 328 327 334 333 333 332 330
302 303 303 304 304 304 303 304 304 304 304 304 304 304 315 314 307 309 314 316 314 311 313 314 316 316 315 314 316 316 317 317 316 319 321 323 324 323 321 328 334 332 331 331 331
301 301 301 302 303 303 303 303 304 304 303 303 304 309 312 309 304 306 308 313 315 315 313 315 314 315 315 316 317 318 317 316 316 319 321 321 323 323 321 324 335 332 330 328 328
303 302 301 301 302 303 303 303 303 302 302 302 307 311 312 304 303 306 308 310 312 314 316 318 317 315 317 316 317 318 317 317 317 322 321 320 320 322 320 326 331 331 328 327 328
303 303 302 301 300 302 302 302 301 301 302 303 309 312 314 311 315 315 314 311 314 315 317 319 318 316 318 318 317 317 319 319 319 320 322 322 321 321 320 326 330 330 327 326 325
304 303 303 302 300 299 299 299 301 305 308 310 314 313 313 312 313 316 316 313 313 314 314 316 315 315 314 316 320 319 320 321 323 321 322 322 321 321 322 324 328 327 327 325 324
303 303 303 301 301 300 298 300 307 310 309 316 317 315 312 313 316 317 315 314 313 313 316 317 317 319 315 316 318 319 320 320 319 320 323 322 321 322 322 327 329 327 327 325 324
300 302 302 301 300 301 302 304 307 306 310 311 310 311 315 316 319 318 316 312 312 313 314 318 320 319 316 317 318 319 320 320 318 318 320 321 318 319 324 327 329 327 325 324 323
301 300 301 301 300 301 299 304 305 306 312 312 310 311 312 313 315 318 312 313 312 313 313 315 319 319 319 319 320 320 319 319 318 318 319 320 319 322 324 325 325 324 324 323 323
300 300 300 302 300 300 300 303 305 307 314 313 313 310 311 310 309 310 309 309 314 314 312 312 314 319 320 320 320 321 319 319 321 320 320 320 321 319 323 325 324 322 321 323 323
300 300 300 302 302 300 300 303 303 311 300 304 309 310 310 309 309 309 307 307 313 312 312 314 316 318 320 320 320 321 320 321 323 322 320 320 322 320 324 328 324 322 322 323 323
300 300 300 302 302 300 302 302 308 314 309 309 311 311 310 310 310 312 307 310 311 314 313 312 313 315 318 319 319 320 320 321 321 320 323 327 326 322 320 325 326 322 323 324 323
298 300 300 301 300 301 302 305 313 313 308 305 309 314 315 310 309 311 311 309 311 315 316 314 313 313 316 317 317 319 319 321 324 325 324 329 329 324 322 319 326 326 322 325 324
299 299 300 300 300 301 302 305 312 310 308 308 308 308 307 306 314 310 311 311 309 311 315 317 317 315 316 316 318 318 319 322 327 327 329 329 327 325 321 319 319 325 325 322 325
299 300 301 300 299 302 302 303 302 305 308 308 307 308 307 310 312 314 314 312 311 309 316 317 317 315 316 316 317 319 319 320 326 329 329 328 327 322 320 319 319 321 325 324 322
301 301 300 300 300 302 302 300 301 301 302 304 306 308 309 309 311 314 316 315 315 312 312 317 318 316 316 316 316 319 320 322 324 331 331 328 328 326 320 320 319 317 325 325 324
301 302 301 301 301 303 301 300 301 300 300 304 304 305 306 307 309 312 315 314 314 315 312 313 317 318 317 318 317 319 321 323 323 325 328 325 322 318 319 320 318 318 319 322 324
301 303 302 301 302 303 303 301 301 302 303 303 304 303 304 304 307 308 311 313 312 315 316 313 315 317 318 317 317 317 319 322 326 327 324 322 321 319 318 318 317 315 316 316 321
302 301 302 302 303 303 303 304 303 302 303 304 305 306 306 308 308 307 312 312 315 317 316 314 316 319 319 317 317 318 318 320 324 323 326 325 323 320 318 320 319 316 314 315 315
296 301 303 304 303 302 303 304 305 303 304 303 304 304 306 306 307 309 311 314 316 315 317 315 317 317 319 318 319 321 320 320 322 323 322 323 321 320 319 319 318 316 315 314 315
296 300 303 303 304 303 303 303 305 304 304 305 305 305 305 307 307 308 309 317 314 315 318 319 318 318 318 318 319 319 319 320 321 321 321 320 321 320 320 319 317 315 316 316 316
298 302 302 301 302 306 303 304 304 304 304 305 304 305 305 305 305 306 310 317 316 315 316 318 318 318 319 318 319 322 320 319 319 319 319 321 320 319 319 316 315 316 316 316 316
300 298 303 302 303 303 304 304 304 304 304 305 305 304 305 305 304 305 308 316 317 317 315 318 319 317 318 319 320 321 320 320 320 319 319 319 318 316 315 314 313 314 314 316 316

GFSSW_925_thetae_090.txt.gz
Theta_e
307 307 307 307 306 305 305 305 305 304 305 304 303 301 300 299 300 304 308 307 316 314 313 312 311 312 311 310 309 306 310 310 312 311 312 310 317 323 324 325 324 326 326 327 331
306 306 306 306 305 305 305 303 303 303 304 304 304 302 300 299 305 310 312 308 316 314 314 313 313 312 312 313 310 309 309 311 309 310 312 313 313 323 327 327 326 327 326 331 331
304 303 304 305 305 305 303 303 302 303 304 303 303 303 300 301 308 305 316 316 315 315 314 313 314 313 314 313 311 309 312 311 312 311 310 311 316 323 326 327 325 327 328 324 330
301 301 301 303 303 302 301 301 301 302 303 304 304 304 301 310 302 312 314 312 313 317 313 311 311 314 314 313 310 312 310 311 312 313 316 316 320 327 323 325 329 329 330 326 333
302 302 302 302 302 301 301 300 299 299 299 300 303 305 303 304 306 304 305 306 310 311 311 310 313 313 315 312 311 311 312 312 313 313 313 319 322 324 325 329 332 332 331 333 331
304 303 302 302 302 301 300 299 299 300 300 300 301 305 311 300 303 304 306 313 314 310 310 309 310 312 314 314 313 313 313 313 313 313 314 319 319 324 322 331 332 331 332 330 329
304 304 303 302 302 301 299 297 297 302 304 304 304 306 307 300 302 302 304 302 306 312 310 311 312 314 314 315 315 314 316 313 313 314 314 314 319 322 320 331 332 331 329 327 326
300 298 298 301 302 301 299 296 302 305 305 304 304 306 308 301 301 301 302 305 304 303 304 313 313 312 313 313 315 316 315 316 314 315 317 318 319 317 319 332 331 329 327 326 326
302 300 297 296 298 300 298 300 305 307 304 303 306 308 306 304 309 308 312 310 310 309 306 313 313 314 315 316 316 314 316 315 315 316 318 319 320 317 319 331 330 328 326 325 324
302 301 300 299 296 298 297 303 306 307 307 308 308 306 302 304 311 314 313 313 310 310 312 313 315 315 313 315 318 317 317 316 317 317 317 319 318 317 318 320 328 327 326 324 322
301 300 299 298 297 297 300 306 305 305 304 307 309 310 310 311 312 315 315 312 310 311 312 312 313 315 316 315 315 315 316 317 315 315 317 315 314 314 315 318 322 325 327 322 320
300 299 298 299 298 297 298 304 302 301 305 305 306 306 307 308 309 309 311 314 311 311 312 315 315 313 314 314 315 316 317 317 315 315 315 315 316 315 316 319 319 323 323 321 320
299 299 299 299 297 300 299 301 301 301 306 307 308 308 308 308 308 308 309 311 311 312 312 313 314 315 316 315 316 315 317 316 316 315 315 315 316 316 317 321 324 324 322 320 321
299 299 299 299 298 300 298 299 300 302 310 308 312 310 309 309 309 308 308 309 311 312 311 311 312 313 316 318 316 318 316 316 316 318 319 316 319 316 316 320 325 325 323 321 319
298 298 299 299 299 299 300 300 300 305 303 303 308 308 309 308 306 307 309 310 309 312 312 312 312 312 313 317 316 318 316 317 318 317 317 318 319 316 321 321 320 322 323 321 319
296 298 298 298 299 299 300 299 305 310 309 305 308 309 307 309 308 308 307 306 308 310 309 310 311 311 312 313 316 317 318 318 318 317 321 319 319 319 317 320 320 321 321 322 319
298 298 298 298 298 299 299 300 309 310 306 306 306 305 306 307 310 311 306 307 304 305 307 307 309 312 313 312 314 316 317 319 320 321 323 319 325 321 318 316 318 319 320 320 320
297 297 298 298 299 300 300 297 307 305 307 303 301 305 307 304 307 310 312 306 306 309 307 304 304 308 312 314 315 316 317 319 324 322 321 324 328 323 319 318 317 316 318 318 318
296 298 299 298 299 300 295 296 299 303 302 300 299 304 306 305 302 306 310 315 312 311 311 313 307 311 312 312 313 314 317 316 317 322 324 322 322 319 319 318 316 314 319 318 318
298 299 298 298 299 300 298 297 296 298 297 298 299 300 302 299 298 302 306 312 312 313 312 314 315 312 313 312 312 312 313 317 319 324 327 323 324 321 319 318 316 316 320 318 319
298 299 298 299 300 299 298 296 297 297 300 298 302 299 300 301 302 304 307 308 311 312 314 315 315 313 312 313 313 314 315 318 318 319 321 322 320 317 318 318 318 314 315 319 318
297 300 299 299 300 300 299 298 298 298 300 302 301 300 299 301 302 302 305 305 302 304 310 314 317 315 314 312 311 313 314 315 318 319 320 318 319 316 316 316 315 314 313 315 318
298 299 299 299 300 300 298 298 299 299 299 301 303 303 302 304 305 304 303 304 308 311 314 312 317 318 315 313 312 312 313 315 318 318 319 321 320 316 314 316 316 315 314 312 316
297 299 298 300 300 298 299 299 299 300 299 299 301 301 301 302 302 305 305 304 304 303 313 311 314 315 320 319 319 318 314 314 318 319 319 320 320 319 318 318 316 315 313 313 311
297 298 299 298 300 300 300 300 299 300 302 302 302 301 301 303 304 304 303 304 304 305 312 312 313 312 314 315 316 319 317 314 315 317 319 318 319 318 317 316 317 315 315 313 313
298 299 299 298 299 301 300 300 300 300 300 304 305 304 304 303 304 304 303 303 304 311 313 313 310 315 314 314 318 319 316 315 317 316 317 316 317 316 316 315 315 315 315 315 312
298 298 300 300 299 300 300 301 302 301 303 302 303 304 304 303 303 303 304 303 304 304 305 310 313 317 317 316 316 317 314 314 314 317 317 317 315 315 316 314 314 315 313 313 313

GFSSW_925_thetae_093.txt.gz
Theta_e
306 306 307 307 305 304 305 306 303 302 303 304 303 301 300 300 299 303 306 305 313 311 315 313 311 311 310 312 310 309 317 317 316 314 316 313 316 320 324 327 325 326 327 327 331
305 305 305 305 304 303 302 301 301 301 301 302 301 301 301 300 304 308 313 313 312 314 313 311 312 312 315 314 313 315 317 316 314 313 315 315 314 315 327 328 328 328 327 331 330
303 303 304 305 305 304 302 300 300 300 300 299 299 300 301 302 307 304 314 313 315 314 313 313 313 314 315 314 314 313 317 314 315 314 313 314 315 320 327 326 327 327 327 330 330
303 303 302 303 305 304 301 300 299 298 298 299 300 300 301 308 306 312 314 311 312 315 313 311 312 315 316 316 313 315 314 314 315 313 314 316 318 324 326 324 331 326 332 327 329
305 305 305 305 305 304 300 299 298 297 298 302 305 302 304 302 303 303 304 305 308 312 313 310 312 314 316 314 312 313 313 313 313 313 315 316 319 321 325 325 332 333 330 329 332
303 302 300 298 299 299 298 297 297 297 302 304 306 305 309 301 301 303 304 313 313 311 309 309 311 313 315 315 314 315 313 315 315 316 315 317 318 322 321 325 334 334 333 332 331
301 299 297 296 295 294 295 295 296 301 305 307 307 305 306 303 301 302 305 307 303 306 309 309 311 314 314 316 314 316 317 317 316 316 315 316 318 322 321 332 334 333 330 329 328
302 301 300 298 297 296 294 295 298 304 307 304 306 305 304 301 301 301 301 302 302 302 309 312 312 313 314 314 316 318 316 318 315 316 317 318 322 320 318 331 333 333 331 329 327
301 301 301 299 297 296 294 296 303 308 303 304 304 305 305 302 306 307 311 308 310 306 304 310 312 315 316 317 317 316 315 317 317 317 319 321 323 320 322 328 330 333 331 328 327
300 301 300 297 298 296 295 299 307 306 307 308 307 305 302 306 312 311 313 312 310 309 311 311 315 318 317 318 316 317 319 318 318 318 317 318 319 319 317 324 328 332 331 328 326
299 299 299 298 298 295 300 303 302 304 301 302 305 309 308 308 308 314 314 312 310 311 309 313 314 319 318 318 316 316 317 318 318 317 317 318 317 318 319 318 322 329 332 328 326
299 298 298 298 297 297 302 301 300 299 303 303 304 304 305 305 307 307 309 314 312 313 312 314 312 315 316 316 318 318 318 319 318 316 317 318 318 319 318 319 321 323 329 329 326
299 298 298 298 297 298 300 299 300 300 304 305 306 307 307 306 306 306 307 311 313 313 313 312 315 314 315 316 317 318 319 320 318 317 317 317 319 320 319 320 322 323 325 328 326
299 298 298 298 298 298 298 298 299 301 308 307 310 309 310 308 309 307 307 306 309 314 312 313 313 314 315 316 317 317 317 318 318 318 319 318 321 320 320 320 320 325 326 326 325
298 297 297 298 298 298 299 298 299 303 299 303 308 308 308 308 307 307 307 307 306 310 313 314 312 313 314 317 317 318 317 318 319 319 319 319 322 321 318 321 322 322 326 326 325
297 296 298 298 298 298 299 297 305 307 300 305 306 306 306 308 308 309 309 308 308 308 310 310 310 312 313 313 317 317 318 318 319 320 324 321 322 322 321 322 322 322 322 326 325
297 297 298 298 298 298 298 299 309 305 303 306 303 302 305 304 310 309 309 310 306 310 309 310 311 311 312 313 316 317 319 319 323 324 324 320 322 322 321 320 320 322 321 325 325
297 296 297 297 298 298 299 299 304 301 306 302 300 302 307 299 301 306 312 312 312 309 309 306 305 311 311 315 315 316 318 319 321 324 323 324 327 324 323 322 320 320 320 322 324
296 297 298 297 298 298 297 296 297 301 300 299 299 301 303 301 299 300 306 313 313 312 312 315 308 311 309 313 315 316 318 317 318 322 324 323 324 322 321 322 319 319 318 321 323
297 297 297 297 298 299 297 295 294 298 297 297 297 299 300 298 299 301 300 309 312 312 313 313 319 312 312 311 313 314 316 320 319 320 319 321 324 321 321 321 321 320 320 322 321
297 297 297 297 299 299 297 296 296 297 298 298 300 300 300 301 301 300 303 307 310 303 308 313 317 317 315 313 315 314 315 316 319 321 321 321 322 323 323 322 321 322 320 319 322
296 297 298 298 300 300 298 296 297 297 297 299 301 301 299 298 298 298 299 304 302 304 308 315 316 318 317 315 313 313 315 315 318 318 322 321 320 318 321 321 320 321 319 316 322
298 297 298 299 299 299 298 298 297 298 298 300 303 303 302 303 301 302 304 303 305 305 306 305 314 315 317 315 316 317 316 317 317 317 318 322 321 317 316 318 319 319 320 317 317
296 297 298 299 299 298 298 298 298 299 298 298 299 301 302 302 303 304 304 303 304 303 306 307 311 308 312 317 314 316 316 314 318 321 319 319 317 320 320 320 320 319 320 318 316
296 297 297 298 299 299 299 299 299 299 300 300 300 299 300 301 301 303 303 303 304 304 306 311 312 312 311 310 310 313 313 313 317 320 319 317 318 319 319 320 321 321 319 317 317
296 296 297 297 297 298 299 301 299 299 299 301 301 302 302 301 301 304 304 304 305 305 307 306 315 313 312 311 312 312 313 316 318 319 319 316 317 318 319 318 318 319 318 319 319
295 297 299 297 298 299 299 299 300 299 300 300 300 305 306 304 304 303 303 304 304 305 305 305 308 314 314 314 315 318 315 317 319 318 317 319 319 317 317 317 319 319 318 317 318

GFSSW_925_thetae_096.txt.gz
Theta_e
304 305 306 306 305 304 303 302 301 300 299 299 299 299 299 299 300 308 310 309 313 309 315 317 315 314 314 315 316 317 318 319 317 317 317 319 319 320 323 325 327 328 328 329 332
305 306 306 306 306 305 303 300 299 299 298 297 299 300 300 299 307 308 310 315 310 314 315 316 315 314 315 315 316 317 318 318 318 317 318 319 320 320 322 323 326 327 328 329 332
305 306 306 306 306 305 301 300 299 297 296 297 301 303 301 301 309 310 313 311 315 314 314 315 315 315 316 317 317 317 318 318 318 317 318 318 319 320 322 322 322 323 324 329 333
305 305 305 304 303 300 297 297 297 296 296 299 302 305 302 309 305 312 314 310 314 316 314 316 318 318 318 318 318 318 318 318 318 318 318 318 319 320 321 322 322 327 328 331 334
303 302 301 298 296 295 295 294 294 295 297 301 304 307 306 307 306 305 304 305 312 317 317 317 318 318 317 317 318 319 318 317 317 317 317 318 319 320 320 321 322 327 333 333 332
302 302 300 298 297 295 294 294 294 296 299 304 307 307 308 305 304 303 304 313 313 312 314 316 316 316 315 316 316 317 317 317 317 317 318 319 319 319 321 321 324 331 333 334 334
302 302 301 301 298 295 294 295 295 298 303 307 306 307 308 306 303 304 304 307 310 309 308 310 313 315 316 316 316 317 317 317 318 318 318 318 319 319 320 324 327 331 333 333 332
301 301 301 299 296 295 294 295 297 302 306 302 306 307 309 305 304 304 304 304 304 304 304 306 312 314 316 317 317 318 318 320 319 318 318 320 320 322 323 325 324 328 332 333 332
301 300 299 297 296 295 294 296 302 307 307 306 307 308 307 303 307 308 310 310 312 309 305 310 313 315 316 317 317 318 319 320 320 319 318 321 321 324 324 324 325 326 330 332 332
300 299 298 297 297 295 296 299 306 307 306 308 307 308 307 306 309 309 312 313 314 311 307 308 314 317 318 318 320 320 320 320 319 319 320 320 322 322 322 321 323 325 329 331 331
300 299 298 297 296 295 300 304 304 308 303 303 304 307 306 306 307 309 314 314 313 313 312 307 314 317 317 318 319 318 318 319 319 319 320 320 318 319 322 322 323 325 329 331 331
300 299 298 298 296 296 302 304 301 301 304 303 304 305 305 305 306 307 308 314 314 314 314 313 311 312 315 317 318 318 318 318 318 318 319 319 319 320 321 322 323 324 327 330 331
299 298 298 297 296 300 302 302 301 301 306 305 307 309 310 307 309 308 307 310 314 313 314 315 315 314 312 316 317 317 317 318 318 319 319 320 319 318 319 323 324 325 326 327 330
299 298 297 297 299 300 300 300 300 302 310 306 309 311 311 310 311 309 307 307 310 313 314 314 314 314 314 314 315 316 316 317 317 318 320 319 319 317 321 322 322 322 327 328 329
299 298 297 296 299 300 300 300 300 304 301 306 310 310 308 311 310 310 309 308 307 306 313 315 315 315 315 316 315 316 316 316 318 319 320 320 321 318 320 323 323 322 323 328 330
297 297 297 299 300 299 300 300 305 311 301 305 308 306 308 309 310 311 310 309 309 307 307 310 311 312 315 314 316 317 319 320 321 322 324 322 320 320 321 324 322 322 324 328 329
297 297 297 299 299 299 300 301 307 302 301 306 305 305 308 306 310 306 313 312 309 312 309 306 308 310 313 314 314 316 320 323 326 325 324 320 321 320 322 323 323 323 323 327 329
296 298 298 298 299 299 300 300 304 300 302 304 303 304 308 303 304 303 313 311 311 311 310 309 308 309 312 313 315 317 320 321 321 324 324 321 324 323 323 323 322 324 325 326 329
298 298 298 299 299 299 301 298 298 299 300 300 300 300 302 304 302 303 303 314 312 310 314 315 313 312 310 312 313 316 318 317 318 319 322 324 324 324 323 323 323 323 322 325 328
298 298 298 299 299 300 300 297 297 298 299 300 298 299 299 301 302 302 302 308 313 305 307 310 316 314 313 312 312 314 315 319 320 321 321 320 321 323 321 321 322 323 323 324 326
298 300 299 299 300 300 299 296 296 297 297 298 298 299 300 300 300 299 299 301 305 305 304 311 313 316 315 315 313 312 315 316 317 320 322 322 321 321 321 321 322 323 323 324 326
298 299 298 299 301 300 300 297 297 297 298 297 298 300 299 299 299 298 298 299 301 302 303 308 312 314 316 316 316 318 316 315 318 317 320 321 321 320 321 322 323 323 324 322 325
300 299 298 299 301 300 298 299 298 298 298 297 297 299 299 299 298 299 300 302 304 308 308 307 312 314 316 317 317 318 318 318 319 319 320 324 322 319 320 320 322 323 323 323 322
299 300 299 299 300 300 299 299 299 299 299 299 299 300 301 302 302 301 303 305 306 305 307 306 308 309 311 314 313 315 316 316 317 322 321 320 319 318 318 319 319 320 322 323 323
297 298 298 299 299 301 299 299 299 299 299 300 300 300 299 299 300 301 303 303 304 305 307 307 309 308 309 308 308 309 310 311 316 317 320 320 320 318 318 318 319 321 322 323 323
298 299 299 298 298 299 299 300 300 299 300 300 301 300 302 303 302 303 305 305 306 306 308 308 309 311 312 311 311 310 309 310 312 315 316 317 319 319 318 318 318 319 320 320 322
296 297 298 297 298 299 299 299 299 300 300 300 301 301 302 303 304 306 305 306 305 306 307 308 309 311 312 312 314 316 313 312 312 313 318 322 320 319 318 318 319 321 322 321 322

GFSSW_925_thetae_099.txt.gz
Theta_e
306 307 307 307 306 305 303 301 300 297 297 297 297 300 300 300 300 309 311 312 314 311 317 318 319 317 316 318 319 319 318 321 322 322 320 320 320 321 322 323 322 323 326 326 331
307 307 307 307 306 305 302 297 296 296 296 296 297 299 300 301 309 311 312 310 311 311 315 318 320 318 318 318 318 318 319 320 322 320 319 319 320 321 321 322 322 323 324 326 332
306 306 306 304 303 301 296 295 295 295 295 296 297 300 300 302 315 315 315 312 312 311 316 317 318 318 318 318 318 318 319 320 321 320 319 319 319 320 320 321 322 323 323 325 329
303 303 303 302 302 299 296 295 295 295 295 296 299 303 304 310 314 316 314 313 315 317 317 317 318 319 318 318 319 319 319 319 320 320 319 319 320 319 320 321 321 322 323 327 330
302 303 302 303 302 296 295 295 295 295 295 298 302 307 309 310 312 311 306 308 312 316 317 318 319 320 320 320 320 320 320 320 320 320 319 319 319 319 319 320 320 321 323 328 332
302 302 303 301 299 295 295 295 295 295 297 300 306 306 312 310 308 306 307 308 312 311 316 318 320 320 320 320 319 319 320 320 320 320 320 319 319 319 320 320 321 322 325 330 333
301 301 300 298 296 295 295 295 295 297 299 306 304 309 310 310 307 307 307 307 311 313 313 315 317 319 318 318 318 318 319 319 319 320 320 320 320 320 321 320 320 324 327 331 333
300 301 300 299 296 295 295 295 296 299 305 306 304 310 311 308 306 305 306 306 306 308 309 310 307 310 315 318 319 320 320 321 321 321 321 321 321 321 322 322 325 325 326 331 333
300 300 300 299 298 295 294 296 300 304 306 306 311 311 312 306 308 311 314 308 310 307 307 306 307 312 313 316 317 319 321 322 322 322 321 320 322 321 324 325 325 325 325 327 332
300 300 300 299 298 296 295 300 304 306 309 309 311 311 311 308 307 309 309 314 317 317 313 308 310 312 314 316 319 319 321 321 322 323 322 321 321 321 322 324 324 324 324 326 329
302 301 299 299 298 295 300 305 307 312 307 304 305 307 306 306 307 308 310 314 316 316 316 311 311 311 313 317 317 319 321 323 322 323 322 322 323 322 321 321 323 324 324 325 328
300 300 299 299 298 296 303 305 303 303 306 305 306 306 306 307 309 309 309 313 315 316 315 314 313 313 312 314 317 318 320 322 321 321 322 322 323 322 321 321 321 323 324 324 327
298 299 299 298 297 303 302 303 302 303 307 307 308 310 312 311 311 311 309 309 311 315 315 316 317 314 313 314 315 318 320 322 322 321 321 321 322 322 322 321 320 321 324 324 325
298 299 298 298 300 302 303 302 302 305 310 309 310 313 313 312 314 311 311 310 309 310 312 314 315 316 315 314 314 316 317 318 319 320 322 321 324 323 322 320 321 323 324 325 325
298 298 298 297 299 302 302 301 302 307 305 307 312 312 311 313 312 312 312 312 310 309 312 313 315 316 317 315 315 315 316 317 317 320 321 321 322 322 323 322 321 323 323 323 326
297 296 297 298 301 301 301 302 305 311 305 307 309 311 309 311 312 311 314 312 312 312 311 310 312 315 316 316 316 315 316 317 319 320 323 322 323 324 323 322 324 324 323 324 326
296 296 297 299 302 302 301 303 307 305 303 305 307 307 308 309 311 309 312 314 315 315 315 312 310 310 312 313 315 315 317 320 322 325 326 323 324 324 322 322 324 323 324 326 328
297 296 298 299 300 301 301 303 305 303 305 306 306 305 306 308 308 307 308 313 314 314 315 314 313 310 309 311 314 316 317 323 321 324 326 325 324 323 323 322 323 324 324 325 328
296 298 299 300 300 300 303 302 301 303 303 303 303 302 302 306 306 306 307 312 315 310 316 316 316 313 309 309 312 313 318 318 321 321 324 327 324 323 324 323 323 323 323 324 328
298 299 300 300 300 300 303 301 301 300 301 301 300 300 301 302 304 304 305 310 314 311 309 315 316 315 313 311 311 313 314 318 319 323 323 321 322 324 324 322 323 324 324 324 325
299 301 301 300 300 302 302 301 300 300 300 299 299 300 301 301 302 304 302 305 304 308 306 308 315 316 315 316 314 312 314 315 317 318 322 324 324 323 323 322 323 323 324 324 325
299 303 301 300 302 301 303 301 299 299 299 299 299 300 301 301 302 302 302 302 302 302 302 307 312 317 315 315 316 318 314 315 319 318 318 322 323 322 322 321 322 325 324 325 325
299 301 300 300 303 302 301 300 300 300 299 299 299 299 300 300 301 301 301 301 301 303 308 310 309 312 313 314 316 317 318 318 317 317 317 322 321 321 321 322 321 321 323 324 324
300 301 302 301 302 302 303 301 300 300 300 300 300 300 300 300 301 301 302 303 304 306 307 307 308 310 313 313 314 317 318 319 319 322 320 319 318 319 319 320 319 320 321 322 325
298 301 301 302 301 302 301 302 301 300 300 301 301 301 301 301 301 302 303 303 303 304 305 308 310 308 308 308 309 310 311 312 314 316 320 320 320 320 320 319 319 320 319 321 323
299 300 300 300 300 300 300 301 302 300 301 301 301 301 302 301 300 300 301 302 304 304 304 306 310 309 308 308 309 310 310 310 310 312 314 316 318 317 317 318 319 320 319 320 320
296 297 300 300 300 300 301 300 300 300 301 301 301 302 302 302 304 305 306 307 306 309 308 310 310 309 312 308 308 313 310 309 309 309 310 314 315 316 319 319 318 319 319 319 321